Wetterdaten: Donnerstag, 14.08.2014
Datum Zeit Temp. Aussen +5cm Feuchte Auss Luftdruck Regen Sonnenschein Regendauer UV Solar Windben
14.08.2014 00:00 14,9 C 12,8 C 86 % 1007,5 hPa 0,0 l/m 0 min 0 min 0,0 UV-I 0 W/m 10,7 km/h (2 Bft)
14.08.2014 00:02 14,9 C 12,8 C 86 % 1007,5 hPa 0,0 l/m 0 min 0 min 0,0 UV-I 0 W/m 7,1 km/h (2 Bft)
14.08.2014 00:06 14,9 C 12,8 C 86 % 1007,6 hPa 0,0 l/m 0 min 0 min 0,0 UV-I 0 W/m 10,7 km/h (2 Bft)
14.08.2014 00:08 14,8 C 12,8 C 86 % 1007,6 hPa 0,0 l/m 0 min 0 min 0,0 UV-I 0 W/m 10,7 km/h (2 Bft)
14.08.2014 00:10 14,8 C 12,8 C 86 % 1007,6 hPa 0,0 l/m 0 min 0 min 0,0 UV-I 0 W/m 14,2 km/h (3 Bft)
14.08.2014 00:12 14,8 C 13,3 C 86 % 1007,6 hPa 0,0 l/m 0 min 0 min 0,0 UV-I 0 W/m 17,7 km/h (3 Bft)
14.08.2014 00:14 14,9 C 13,3 C 86 % 1007,7 hPa 0,0 l/m 0 min 0 min 0,0 UV-I 0 W/m 10,7 km/h (2 Bft)
14.08.2014 00:16 14,8 C 12,8 C 86 % 1007,7 hPa 0,0 l/m 0 min 0 min 0,0 UV-I 0 W/m 0,0 km/h (0 Bft)
14.08.2014 00:18 14,8 C 12,8 C 86 % 1007,7 hPa 0,0 l/m 0 min 0 min 0,0 UV-I 0 W/m 0,0 km/h (0 Bft)
14.08.2014 00:20 14,8 C 12,8 C 86 % 1007,7 hPa 0,0 l/m 0 min 0 min 0,0 UV-I 0 W/m 0,0 km/h (0 Bft)
14.08.2014 00:22 14,7 C 12,8 C 87 % 1007,8 hPa 0,0 l/m 0 min 0 min 0,0 UV-I 0 W/m 10,7 km/h (2 Bft)
14.08.2014 00:24 14,7 C 12,8 C 87 % 1007,7 hPa 0,0 l/m 0 min 0 min 0,0 UV-I 0 W/m 10,7 km/h (2 Bft)
14.08.2014 00:26 14,7 C 12,8 C 87 % 1007,7 hPa 0,0 l/m 0 min 0 min 0,0 UV-I 0 W/m 14,2 km/h (3 Bft)
14.08.2014 00:28 14,7 C 12,8 C 87 % 1007,8 hPa 0,0 l/m 0 min 0 min 0,0 UV-I 0 W/m 0,0 km/h (0 Bft)
14.08.2014 00:30 14,7 C 12,8 C 87 % 1007,8 hPa 0,0 l/m 0 min 0 min 0,0 UV-I 0 W/m 3,5 km/h (1 Bft)
14.08.2014 00:32 14,6 C 12,8 C 87 % 1007,8 hPa 0,0 l/m 0 min 0 min 0,0 UV-I 0 W/m 0,0 km/h (0 Bft)
14.08.2014 00:34 14,5 C 12,8 C 87 % 1007,9 hPa 0,0 l/m 0 min 0 min 0,0 UV-I 0 W/m 14,2 km/h (3 Bft)
14.08.2014 00:36 14,5 C 12,8 C 88 % 1007,8 hPa 0,0 l/m 0 min 0 min 0,0 UV-I 0 W/m 14,2 km/h (3 Bft)
14.08.2014 00:38 14,4 C 12,8 C 88 % 1007,9 hPa 0,0 l/m 0 min 0 min 0,0 UV-I 0 W/m 7,1 km/h (2 Bft)
14.08.2014 00:40 14,4 C 12,8 C 88 % 1007,9 hPa 0,0 l/m 0 min 0 min 0,0 UV-I 0 W/m 14,2 km/h (3 Bft)
14.08.2014 00:42 14,4 C 12,8 C 89 % 1007,9 hPa 0,0 l/m 0 min 0 min 0,0 UV-I 0 W/m 10,7 km/h (2 Bft)
14.08.2014 00:44 14,4 C 12,8 C 89 % 1007,9 hPa 0,0 l/m 0 min 0 min 0,0 UV-I 0 W/m 3,5 km/h (1 Bft)
14.08.2014 00:46 14,4 C 12,8 C 89 % 1007,9 hPa 0,0 l/m 0 min 0 min 0,0 UV-I 0 W/m 14,2 km/h (3 Bft)
14.08.2014 00:48 14,4 C 12,8 C 89 % 1008,0 hPa 0,0 l/m 0 min 0 min 0,0 UV-I 0 W/m 7,1 km/h (2 Bft)
14.08.2014 00:50 14,3 C 12,8 C 89 % 1008,0 hPa 0,0 l/m 0 min 0 min 0,0 UV-I 0 W/m 10,7 km/h (2 Bft)
14.08.2014 00:52 14,3 C 12,8 C 89 % 1008,0 hPa 0,0 l/m 0 min 0 min 0,0 UV-I 0 W/m 7,1 km/h (2 Bft)
14.08.2014 00:54 14,3 C 12,8 C 89 % 1008,0 hPa 0,0 l/m 0 min 0 min 0,0 UV-I 0 W/m 14,2 km/h (3 Bft)
14.08.2014 00:56 14,2 C 12,8 C 89 % 1008,0 hPa 0,0 l/m 0 min 0 min 0,0 UV-I 0 W/m 14,2 km/h (3 Bft)
14.08.2014 00:58 14,3 C 12,8 C 90 % 1008,0 hPa 0,0 l/m 0 min 0 min 0,0 UV-I 0 W/m 14,2 km/h (3 Bft)
14.08.2014 01:00 14,3 C 12,8 C 90 % 1008,0 hPa 0,0 l/m 0 min 0 min 0,0 UV-I 0 W/m 14,2 km/h (3 Bft)
14.08.2014 01:02 14,3 C 12,8 C 90 % 1008,0 hPa 0,0 l/m 0 min 0 min 0,0 UV-I 0 W/m 14,2 km/h (3 Bft)
14.08.2014 01:04 14,3 C 12,8 C 90 % 1008,0 hPa 0,0 l/m 0 min 0 min 0,0 UV-I 0 W/m 14,2 km/h (3 Bft)
14.08.2014 01:06 14,3 C 12,8 C 90 % 1008,1 hPa 0,0 l/m 0 min 0 min 0,0 UV-I 0 W/m 17,7 km/h (3 Bft)
14.08.2014 01:08 14,3 C 12,8 C 90 % 1008,1 hPa 0,0 l/m 0 min 0 min 0,0 UV-I 0 W/m 14,2 km/h (3 Bft)
14.08.2014 01:10 14,3 C 12,8 C 90 % 1008,1 hPa 0,0 l/m 0 min 0 min 0,0 UV-I 0 W/m 21,3 km/h (4 Bft)
14.08.2014 01:12 14,4 C 13,3 C 90 % 1008,1 hPa 0,0 l/m 0 min 0 min 0,0 UV-I 0 W/m 21,3 km/h (4 Bft)
14.08.2014 01:14 14,4 C 13,3 C 90 % 1008,1 hPa 0,0 l/m 0 min 0 min 0,0 UV-I 0 W/m 17,7 km/h (3 Bft)
14.08.2014 01:16 14,4 C 13,3 C 90 % 1008,1 hPa 0,0 l/m 0 min 0 min 0,0 UV-I 0 W/m 24,7 km/h (4 Bft)
14.08.2014 01:18 14,4 C 13,3 C 90 % 1008,1 hPa 0,0 l/m 0 min 0 min 0,0 UV-I 0 W/m 21,3 km/h (4 Bft)
14.08.2014 01:20 14,4 C 13,3 C 90 % 1008,1 hPa 0,0 l/m 0 min 0 min 0,0 UV-I 0 W/m 17,7 km/h (3 Bft)
14.08.2014 01:22 14,4 C 13,3 C 90 % 1008,1 hPa 0,0 l/m 0 min 0 min 0,0 UV-I 0 W/m 17,7 km/h (3 Bft)
14.08.2014 01:24 14,3 C 13,3 C 90 % 1008,1 hPa 0,0 l/m 0 min 0 min 0,0 UV-I 0 W/m 17,7 km/h (3 Bft)
14.08.2014 01:26 14,4 C 13,3 C 90 % 1008,1 hPa 0,0 l/m 0 min 0 min 0,0 UV-I 0 W/m 21,3 km/h (4 Bft)
14.08.2014 01:28 14,4 C 13,3 C 91 % 1008,1 hPa 0,0 l/m 0 min 0 min 0,0 UV-I 0 W/m 21,3 km/h (4 Bft)
14.08.2014 01:30 14,3 C 13,3 C 91 % 1008,1 hPa 0,0 l/m 0 min 0 min 0,0 UV-I 0 W/m 28,2 km/h (4 Bft)
14.08.2014 01:32 14,4 C 13,3 C 91 % 1008,0 hPa 0,0 l/m 0 min 0 min 0,0 UV-I 0 W/m 24,7 km/h (4 Bft)
14.08.2014 01:34 14,3 C 12,8 C 91 % 1008,0 hPa 0,0 l/m 0 min 0 min 0,0 UV-I 0 W/m 17,7 km/h (3 Bft)
14.08.2014 01:36 14,3 C 12,8 C 91 % 1008,0 hPa 0,0 l/m 0 min 0 min 0,0 UV-I 0 W/m 21,3 km/h (4 Bft)
14.08.2014 01:38 14,3 C 12,8 C 91 % 1008,1 hPa 0,0 l/m 0 min 0 min 0,0 UV-I 0 W/m 21,3 km/h (4 Bft)
14.08.2014 01:40 14,3 C 13,3 C 91 % 1008,1 hPa 0,0 l/m 0 min 0 min 0,0 UV-I 0 W/m 28,2 km/h (4 Bft)
14.08.2014 01:42 14,3 C 13,3 C 91 % 1008,1 hPa 0,0 l/m 0 min 0 min 0,0 UV-I 0 W/m 24,7 km/h (4 Bft)
14.08.2014 01:44 14,4 C 13,3 C 91 % 1008,1 hPa 0,0 l/m 0 min 0 min 0,0 UV-I 0 W/m 24,7 km/h (4 Bft)
14.08.2014 01:46 14,4 C 13,3 C 91 % 1008,1 hPa 0,0 l/m 0 min 0 min 0,0 UV-I 0 W/m 28,2 km/h (4 Bft)
14.08.2014 01:48 14,4 C 13,3 C 91 % 1008,1 hPa 0,0 l/m 0 min 0 min 0,0 UV-I 0 W/m 21,3 km/h (4 Bft)
14.08.2014 01:50 14,4 C 13,3 C 91 % 1008,1 hPa 0,0 l/m 0 min 0 min 0,0 UV-I 0 W/m 21,3 km/h (4 Bft)
14.08.2014 01:52 14,4 C 13,3 C 91 % 1008,1 hPa 0,0 l/m 0 min 0 min 0,0 UV-I 0 W/m 21,3 km/h (4 Bft)
14.08.2014 01:54 14,4 C 13,3 C 91 % 1008,2 hPa 0,0 l/m 0 min 0 min 0,0 UV-I 0 W/m 21,3 km/h (4 Bft)
14.08.2014 01:56 14,4 C 13,3 C 91 % 1008,2 hPa 0,0 l/m 0 min 0 min 0,0 UV-I 0 W/m 21,3 km/h (4 Bft)
14.08.2014 01:58 14,3 C 13,3 C 91 % 1008,3 hPa 0,0 l/m 0 min 0 min 0,0 UV-I 0 W/m 17,7 km/h (3 Bft)
14.08.2014 02:00 14,3 C 13,3 C 91 % 1008,2 hPa 0,0 l/m 0 min 0 min 0,0 UV-I 0 W/m 17,7 km/h (3 Bft)
14.08.2014 02:02 14,3 C 13,3 C 91 % 1008,2 hPa 0,0 l/m 0 min 0 min 0,0 UV-I 0 W/m 17,7 km/h (3 Bft)
14.08.2014 02:04 14,3 C 12,8 C 91 % 1008,2 hPa 0,0 l/m 0 min 0 min 0,0 UV-I 0 W/m 35,4 km/h (5 Bft)
14.08.2014 02:06 14,3 C 13,3 C 91 % 1008,2 hPa 0,0 l/m 0 min 0 min 0,0 UV-I 0 W/m 28,2 km/h (4 Bft)
14.08.2014 02:08 14,2 C 13,3 C 91 % 1008,2 hPa 0,0 l/m 0 min 0 min 0,0 UV-I 0 W/m 21,3 km/h (4 Bft)
14.08.2014 02:10 14,3 C 13,3 C 91 % 1008,2 hPa 0,0 l/m 0 min 0 min 0,0 UV-I 0 W/m 24,7 km/h (4 Bft)
14.08.2014 02:12 14,2 C 13,3 C 91 % 1008,1 hPa 0,0 l/m 0 min 0 min 0,0 UV-I 0 W/m 21,3 km/h (4 Bft)
14.08.2014 02:14 14,3 C 13,3 C 91 % 1008,2 hPa 0,0 l/m 0 min 0 min 0,0 UV-I 0 W/m 24,7 km/h (4 Bft)
14.08.2014 02:16 14,3 C 13,3 C 91 % 1008,2 hPa 0,0 l/m 0 min 0 min 0,0 UV-I 0 W/m 28,2 km/h (4 Bft)
14.08.2014 02:18 14,3 C 13,3 C 91 % 1008,1 hPa 0,0 l/m 0 min 0 min 0,0 UV-I 0 W/m 21,3 km/h (4 Bft)
14.08.2014 02:20 14,3 C 13,3 C 91 % 1008,1 hPa 0,0 l/m 0 min 0 min 0,0 UV-I 0 W/m 24,7 km/h (4 Bft)
14.08.2014 02:22 14,3 C 13,3 C 90 % 1008,1 hPa 0,0 l/m 0 min 0 min 0,0 UV-I 0 W/m 28,2 km/h (4 Bft)
14.08.2014 02:24 14,3 C 12,8 C 90 % 1008,2 hPa 0,0 l/m 0 min 0 min 0,0 UV-I 0 W/m 14,2 km/h (3 Bft)
14.08.2014 02:26 14,2 C 12,8 C 90 % 1008,1 hPa 0,0 l/m 0 min 0 min 0,0 UV-I 0 W/m 17,7 km/h (3 Bft)
14.08.2014 02:28 14,2 C 12,8 C 90 % 1008,2 hPa 0,0 l/m 0 min 0 min 0,0 UV-I 0 W/m 28,2 km/h (4 Bft)
14.08.2014 02:30 14,2 C 12,8 C 90 % 1008,1 hPa 0,0 l/m 0 min 0 min 0,0 UV-I 0 W/m 24,7 km/h (4 Bft)
14.08.2014 02:32 14,2 C 12,8 C 90 % 1008,2 hPa 0,0 l/m 0 min 0 min 0,0 UV-I 0 W/m 24,7 km/h (4 Bft)
14.08.2014 02:34 14,2 C 12,8 C 90 % 1008,3 hPa 0,0 l/m 0 min 0 min 0,0 UV-I 0 W/m 17,7 km/h (3 Bft)
14.08.2014 02:36 14,2 C 12,8 C 90 % 1008,3 hPa 0,0 l/m 0 min 0 min 0,0 UV-I 0 W/m 17,7 km/h (3 Bft)
14.08.2014 02:38 14,2 C 12,8 C 90 % 1008,2 hPa 0,0 l/m 0 min 0 min 0,0 UV-I 0 W/m 21,3 km/h (4 Bft)
14.08.2014 02:40 14,2 C 12,8 C 90 % 1008,2 hPa 0,0 l/m 0 min 0 min 0,0 UV-I 0 W/m 21,3 km/h (4 Bft)
14.08.2014 02:42 14,2 C 12,8 C 90 % 1008,2 hPa 0,0 l/m 0 min 0 min 0,0 UV-I 0 W/m 17,7 km/h (3 Bft)
14.08.2014 02:44 14,2 C 12,8 C 90 % 1008,2 hPa 0,0 l/m 0 min 0 min 0,0 UV-I 0 W/m 17,7 km/h (3 Bft)
14.08.2014 02:46 14,2 C 12,8 C 90 % 1008,2 hPa 0,0 l/m 0 min 0 min 0,0 UV-I 0 W/m 14,2 km/h (3 Bft)
14.08.2014 02:48 14,2 C 12,8 C 90 % 1008,2 hPa 0,0 l/m 0 min 0 min 0,0 UV-I 0 W/m 21,3 km/h (4 Bft)
14.08.2014 02:50 14,2 C 12,8 C 90 % 1008,2 hPa 0,0 l/m 0 min 0 min 0,0 UV-I 0 W/m 21,3 km/h (4 Bft)
14.08.2014 02:52 14,2 C 12,8 C 90 % 1008,2 hPa 0,0 l/m 0 min 0 min 0,0 UV-I 0 W/m 14,2 km/h (3 Bft)
14.08.2014 02:54 14,2 C 12,8 C 90 % 1008,2 hPa 0,0 l/m 0 min 0 min 0,0 UV-I 0 W/m 24,7 km/h (4 Bft)
14.08.2014 02:56 14,1 C 12,8 C 90 % 1008,2 hPa 0,0 l/m 0 min 0 min 0,0 UV-I 0 W/m 21,3 km/h (4 Bft)
14.08.2014 02:58 14,1 C 12,8 C 90 % 1008,2 hPa 0,0 l/m 0 min 0 min 0,0 UV-I 0 W/m 17,7 km/h (3 Bft)
14.08.2014 03:00 14,1 C 12,8 C 90 % 1008,3 hPa 0,0 l/m 0 min 0 min 0,0 UV-I 0 W/m 21,3 km/h (4 Bft)
14.08.2014 03:02 14,1 C 12,8 C 91 % 1008,2 hPa 0,0 l/m 0 min 0 min 0,0 UV-I 0 W/m 24,7 km/h (4 Bft)
14.08.2014 03:04 14,0 C 12,8 C 91 % 1008,2 hPa 0,0 l/m 0 min 0 min 0,0 UV-I 0 W/m 14,2 km/h (3 Bft)
14.08.2014 03:06 13,9 C 12,8 C 91 % 1008,2 hPa 0,0 l/m 0 min 0 min 0,0 UV-I 0 W/m 24,7 km/h (4 Bft)
14.08.2014 03:08 14,0 C 12,8 C 91 % 1008,2 hPa 0,0 l/m 0 min 0 min 0,0 UV-I 0 W/m 24,7 km/h (4 Bft)
14.08.2014 03:10 13,9 C 12,8 C 91 % 1008,2 hPa 0,0 l/m 0 min 0 min 0,0 UV-I 0 W/m 31,7 km/h (5 Bft)
14.08.2014 03:12 13,9 C 12,8 C 91 % 1008,2 hPa 0,0 l/m 0 min 0 min 0,0 UV-I 0 W/m 14,2 km/h (3 Bft)
14.08.2014 03:14 13,9 C 12,8 C 91 % 1008,2 hPa 0,0 l/m 0 min 0 min 0,0 UV-I 0 W/m 24,7 km/h (4 Bft)
14.08.2014 03:16 13,9 C 12,8 C 91 % 1008,2 hPa 0,0 l/m 0 min 0 min 0,0 UV-I 0 W/m 28,2 km/h (4 Bft)
14.08.2014 03:18 13,9 C 12,8 C 91 % 1008,2 hPa 0,0 l/m 0 min 0 min 0,0 UV-I 0 W/m 31,7 km/h (5 Bft)
14.08.2014 03:20 13,9 C 12,8 C 91 % 1008,3 hPa 0,0 l/m 0 min 0 min 0,0 UV-I 0 W/m 24,7 km/h (4 Bft)
14.08.2014 03:22 13,9 C 12,8 C 90 % 1008,2 hPa 0,0 l/m 0 min 0 min 0,0 UV-I 0 W/m 17,7 km/h (3 Bft)
14.08.2014 03:24 13,9 C 12,8 C 90 % 1008,2 hPa 0,0 l/m 0 min 0 min 0,0 UV-I 0 W/m 24,7 km/h (4 Bft)
14.08.2014 03:26 13,9 C 12,8 C 90 % 1008,2 hPa 0,0 l/m 0 min 0 min 0,0 UV-I 0 W/m 17,7 km/h (3 Bft)
14.08.2014 03:28 13,9 C 12,8 C 90 % 1008,2 hPa 0,0 l/m 0 min 0 min 0,0 UV-I 0 W/m 17,7 km/h (3 Bft)
14.08.2014 03:30 13,9 C 12,8 C 90 % 1008,3 hPa 0,0 l/m 0 min 0 min 0,0 UV-I 0 W/m 14,2 km/h (3 Bft)
14.08.2014 03:32 13,8 C 12,8 C 90 % 1008,2 hPa 0,0 l/m 0 min 0 min 0,0 UV-I 0 W/m 24,7 km/h (4 Bft)
14.08.2014 03:34 13,8 C 12,8 C 90 % 1008,3 hPa 0,0 l/m 0 min 0 min 0,0 UV-I 0 W/m 28,2 km/h (4 Bft)
14.08.2014 03:36 13,8 C 12,8 C 90 % 1008,2 hPa 0,0 l/m 0 min 0 min 0,0 UV-I 0 W/m 21,3 km/h (4 Bft)
14.08.2014 03:38 13,8 C 12,8 C 90 % 1008,4 hPa 0,0 l/m 0 min 0 min 0,0 UV-I 0 W/m 21,3 km/h (4 Bft)
14.08.2014 03:40 13,8 C 12,8 C 90 % 1008,3 hPa 0,0 l/m 0 min 0 min 0,0 UV-I 0 W/m 14,2 km/h (3 Bft)
14.08.2014 03:42 13,7 C 12,2 C 90 % 1008,3 hPa 0,0 l/m 0 min 0 min 0,0 UV-I 0 W/m 21,3 km/h (4 Bft)
14.08.2014 03:44 13,7 C 12,2 C 90 % 1008,4 hPa 0,0 l/m 0 min 0 min 0,0 UV-I 0 W/m 24,7 km/h (4 Bft)
14.08.2014 03:46 13,7 C 12,2 C 90 % 1008,3 hPa 0,0 l/m 0 min 0 min 0,0 UV-I 0 W/m 14,2 km/h (3 Bft)
14.08.2014 03:48 13,7 C 12,2 C 90 % 1008,4 hPa 0,0 l/m 0 min 0 min 0,0 UV-I 0 W/m 14,2 km/h (3 Bft)
14.08.2014 03:50 13,7 C 12,2 C 90 % 1008,4 hPa 0,0 l/m 0 min 0 min 0,0 UV-I 0 W/m 24,7 km/h (4 Bft)
14.08.2014 03:52 13,7 C 12,2 C 90 % 1008,4 hPa 0,0 l/m 0 min 0 min 0,0 UV-I 0 W/m 24,7 km/h (4 Bft)
14.08.2014 03:54 13,7 C 12,8 C 90 % 1008,4 hPa 0,0 l/m 0 min 0 min 0,0 UV-I 0 W/m 24,7 km/h (4 Bft)
14.08.2014 03:56 13,7 C 12,8 C 90 % 1008,4 hPa 0,0 l/m 0 min 0 min 0,0 UV-I 0 W/m 21,3 km/h (4 Bft)
14.08.2014 03:58 13,7 C 12,8 C 90 % 1008,4 hPa 0,0 l/m 0 min 0 min 0,0 UV-I 0 W/m 31,7 km/h (5 Bft)
14.08.2014 04:00 13,7 C 12,2 C 90 % 1008,4 hPa 0,0 l/m 0 min 0 min 0,0 UV-I 0 W/m 14,2 km/h (3 Bft)
14.08.2014 04:05 13,6 C 12,2 C 91 % 1008,4 hPa 0,0 l/m 0 min 0 min 0,0 UV-I 0 W/m 21,3 km/h (4 Bft)
14.08.2014 04:06 13,6 C 12,2 C 91 % 1008,4 hPa 0,0 l/m 0 min 0 min 0,0 UV-I 0 W/m 21,3 km/h (4 Bft)
14.08.2014 04:08 13,6 C 12,2 C 91 % 1008,3 hPa 0,0 l/m 0 min 0 min 0,0 UV-I 0 W/m 28,2 km/h (4 Bft)
14.08.2014 04:10 13,6 C 12,2 C 91 % 1008,4 hPa 0,0 l/m 0 min 0 min 0,0 UV-I 0 W/m 10,7 km/h (2 Bft)
14.08.2014 04:12 13,6 C 12,2 C 91 % 1008,4 hPa 0,0 l/m 0 min 0 min 0,0 UV-I 0 W/m 24,7 km/h (4 Bft)
14.08.2014 04:14 13,6 C 12,2 C 91 % 1008,3 hPa 0,0 l/m 0 min 0 min 0,0 UV-I 0 W/m 21,3 km/h (4 Bft)
14.08.2014 04:16 13,6 C 12,2 C 91 % 1008,3 hPa 0,0 l/m 0 min 0 min 0,0 UV-I 0 W/m 17,7 km/h (3 Bft)
14.08.2014 04:18 13,6 C 12,2 C 91 % 1008,3 hPa 0,0 l/m 0 min 0 min 0,0 UV-I 0 W/m 31,7 km/h (5 Bft)
14.08.2014 04:20 13,6 C 12,2 C 91 % 1008,3 hPa 0,0 l/m 0 min 0 min 0,0 UV-I 0 W/m 28,2 km/h (4 Bft)
14.08.2014 04:22 13,6 C 12,2 C 91 % 1008,3 hPa 0,0 l/m 0 min 0 min 0,0 UV-I 0 W/m 28,2 km/h (4 Bft)
14.08.2014 04:24 13,6 C 12,2 C 91 % 1008,3 hPa 0,0 l/m 0 min 0 min 0,0 UV-I 0 W/m 31,7 km/h (5 Bft)
14.08.2014 04:26 13,6 C 12,2 C 91 % 1008,3 hPa 0,0 l/m 0 min 0 min 0,0 UV-I 0 W/m 17,7 km/h (3 Bft)
14.08.2014 04:28 13,6 C 12,2 C 91 % 1008,3 hPa 0,0 l/m 0 min 0 min 0,0 UV-I 0 W/m 21,3 km/h (4 Bft)
14.08.2014 04:30 13,6 C 12,2 C 91 % 1008,3 hPa 0,0 l/m 0 min 0 min 0,0 UV-I 0 W/m 24,7 km/h (4 Bft)
14.08.2014 04:32 13,5 C 12,2 C 91 % 1008,4 hPa 0,0 l/m 0 min 0 min 0,0 UV-I 0 W/m 24,7 km/h (4 Bft)
14.08.2014 04:34 13,6 C 12,2 C 91 % 1008,3 hPa 0,0 l/m 0 min 0 min 0,0 UV-I 0 W/m 24,7 km/h (4 Bft)
14.08.2014 04:36 13,6 C 12,2 C 91 % 1008,4 hPa 0,0 l/m 0 min 0 min 0,0 UV-I 0 W/m 21,3 km/h (4 Bft)
14.08.2014 04:38 13,6 C 12,2 C 91 % 1008,4 hPa 0,0 l/m 0 min 0 min 0,0 UV-I 0 W/m 24,7 km/h (4 Bft)
14.08.2014 04:40 13,6 C 12,2 C 91 % 1008,3 hPa 0,0 l/m 0 min 0 min 0,0 UV-I 0 W/m 21,3 km/h (4 Bft)
14.08.2014 04:42 13,6 C 12,2 C 91 % 1008,3 hPa 0,0 l/m 0 min 0 min 0,0 UV-I 0 W/m 24,7 km/h (4 Bft)
14.08.2014 04:44 13,6 C 12,2 C 91 % 1008,3 hPa 0,0 l/m 0 min 0 min 0,0 UV-I 0 W/m 21,3 km/h (4 Bft)
14.08.2014 04:46 13,6 C 12,2 C 91 % 1008,3 hPa 0,0 l/m 0 min 0 min 0,0 UV-I 0 W/m 24,7 km/h (4 Bft)
14.08.2014 04:48 13,6 C 12,8 C 91 % 1008,4 hPa 0,0 l/m 0 min 0 min 0,0 UV-I 0 W/m 24,7 km/h (4 Bft)
14.08.2014 04:50 13,6 C 12,8 C 92 % 1008,4 hPa 0,0 l/m 0 min 0 min 0,0 UV-I 0 W/m 24,7 km/h (4 Bft)
14.08.2014 04:52 13,7 C 12,2 C 92 % 1008,4 hPa 0,0 l/m 0 min 0 min 0,0 UV-I 0 W/m 14,2 km/h (3 Bft)
14.08.2014 04:54 13,7 C 12,8 C 91 % 1008,5 hPa 0,0 l/m 0 min 0 min 0,0 UV-I 0 W/m 31,7 km/h (5 Bft)
14.08.2014 04:56 13,7 C 12,8 C 91 % 1008,5 hPa 0,0 l/m 0 min 0 min 0,0 UV-I 0 W/m 31,7 km/h (5 Bft)
14.08.2014 04:58 13,7 C 12,8 C 91 % 1008,4 hPa 0,0 l/m 0 min 0 min 0,0 UV-I 0 W/m 42,4 km/h (6 Bft)
14.08.2014 05:00 13,7 C 12,8 C 91 % 1008,4 hPa 0,0 l/m 0 min 0 min 0,0 UV-I 0 W/m 28,2 km/h (4 Bft)
14.08.2014 05:02 13,7 C 12,8 C 91 % 1008,5 hPa 0,0 l/m 0 min 0 min 0,0 UV-I 0 W/m 28,2 km/h (4 Bft)
14.08.2014 05:04 13,8 C 12,8 C 91 % 1008,4 hPa 0,0 l/m 0 min 0 min 0,0 UV-I 0 W/m 24,7 km/h (4 Bft)
14.08.2014 05:06 13,8 C 12,8 C 91 % 1008,5 hPa 0,0 l/m 0 min 0 min 0,0 UV-I 0 W/m 28,2 km/h (4 Bft)
14.08.2014 05:08 13,8 C 12,8 C 91 % 1008,4 hPa 0,0 l/m 0 min 0 min 0,0 UV-I 0 W/m 24,7 km/h (4 Bft)
14.08.2014 05:10 13,8 C 12,8 C 91 % 1008,4 hPa 0,0 l/m 0 min 0 min 0,0 UV-I 0 W/m 28,2 km/h (4 Bft)
14.08.2014 05:12 13,9 C 12,8 C 91 % 1008,4 hPa 0,0 l/m 0 min 0 min 0,0 UV-I 0 W/m 42,4 km/h (6 Bft)
14.08.2014 05:14 13,9 C 12,8 C 91 % 1008,4 hPa 0,0 l/m 0 min 0 min 0,0 UV-I 0 W/m 35,4 km/h (5 Bft)
14.08.2014 05:16 13,9 C 12,8 C 91 % 1008,4 hPa 0,0 l/m 0 min 0 min 0,0 UV-I 0 W/m 38,9 km/h (6 Bft)
14.08.2014 05:18 13,8 C 12,8 C 90 % 1008,4 hPa 0,0 l/m 0 min 0 min 0,0 UV-I 0 W/m 28,2 km/h (4 Bft)
14.08.2014 05:20 13,8 C 12,8 C 90 % 1008,4 hPa 0,0 l/m 0 min 0 min 0,0 UV-I 0 W/m 38,9 km/h (6 Bft)
14.08.2014 05:22 13,8 C 12,8 C 90 % 1008,4 hPa 0,0 l/m 0 min 0 min 0,0 UV-I 0 W/m 31,7 km/h (5 Bft)
14.08.2014 05:24 13,8 C 12,8 C 90 % 1008,4 hPa 0,0 l/m 0 min 0 min 0,0 UV-I 0 W/m 35,4 km/h (5 Bft)
14.08.2014 05:26 13,7 C 12,8 C 90 % 1008,4 hPa 0,0 l/m 0 min 0 min 0,0 UV-I 0 W/m 31,7 km/h (5 Bft)
14.08.2014 05:28 13,7 C 12,8 C 91 % 1008,4 hPa 0,0 l/m 0 min 0 min 0,0 UV-I 0 W/m 38,9 km/h (6 Bft)
14.08.2014 05:30 13,7 C 12,2 C 91 % 1008,4 hPa 0,0 l/m 0 min 0 min 0,0 UV-I 0 W/m 24,7 km/h (4 Bft)
14.08.2014 05:32 13,7 C 12,2 C 91 % 1008,4 hPa 0,0 l/m 0 min 0 min 0,0 UV-I 0 W/m 31,7 km/h (5 Bft)
14.08.2014 05:34 13,7 C 12,2 C 91 % 1008,4 hPa 0,0 l/m 0 min 0 min 0,0 UV-I 0 W/m 31,7 km/h (5 Bft)
14.08.2014 05:36 13,7 C 12,2 C 91 % 1008,5 hPa 0,0 l/m 0 min 0 min 0,0 UV-I 0 W/m 28,2 km/h (4 Bft)
14.08.2014 05:38 13,7 C 12,2 C 91 % 1008,5 hPa 0,0 l/m 0 min 0 min 0,0 UV-I 0 W/m 28,2 km/h (4 Bft)
14.08.2014 05:40 13,6 C 12,2 C 91 % 1008,5 hPa 0,0 l/m 0 min 0 min 0,0 UV-I 0 W/m 21,3 km/h (4 Bft)
14.08.2014 05:42 13,6 C 12,8 C 91 % 1008,5 hPa 0,0 l/m 0 min 0 min 0,0 UV-I 0 W/m 28,2 km/h (4 Bft)
14.08.2014 05:44 13,6 C 12,8 C 91 % 1008,5 hPa 0,0 l/m 0 min 0 min 0,0 UV-I 0 W/m 24,7 km/h (4 Bft)
14.08.2014 05:46 13,7 C 12,8 C 91 % 1008,5 hPa 0,0 l/m 0 min 0 min 0,0 UV-I 0 W/m 28,2 km/h (4 Bft)
14.08.2014 05:48 13,7 C 12,8 C 91 % 1008,5 hPa 0,0 l/m 0 min 0 min 0,0 UV-I 0 W/m 21,3 km/h (4 Bft)
14.08.2014 05:50 13,7 C 12,8 C 91 % 1008,5 hPa 0,0 l/m 0 min 0 min 0,0 UV-I 0 W/m 24,7 km/h (4 Bft)
14.08.2014 05:52 13,7 C 12,8 C 91 % 1008,4 hPa 0,0 l/m 0 min 0 min 0,0 UV-I 0 W/m 17,7 km/h (3 Bft)
14.08.2014 05:54 13,7 C 12,2 C 91 % 1008,4 hPa 0,0 l/m 0 min 0 min 0,0 UV-I 0 W/m 21,3 km/h (4 Bft)
14.08.2014 05:56 13,6 C 12,8 C 91 % 1008,5 hPa 0,0 l/m 0 min 0 min 0,0 UV-I 0 W/m 21,3 km/h (4 Bft)
14.08.2014 05:58 13,6 C 12,2 C 92 % 1008,5 hPa 0,0 l/m 0 min 0 min 0,0 UV-I 0 W/m 17,7 km/h (3 Bft)
14.08.2014 06:00 13,7 C 12,8 C 92 % 1008,4 hPa 0,0 l/m 0 min 0 min 0,0 UV-I 0 W/m 21,3 km/h (4 Bft)
14.08.2014 06:02 13,7 C 12,8 C 92 % 1008,5 hPa 0,0 l/m 0 min 0 min 0,0 UV-I 0 W/m 17,7 km/h (3 Bft)
14.08.2014 06:06 13,7 C 12,8 C 92 % 1008,4 hPa 0,0 l/m 0 min 0 min 0,0 UV-I 0 W/m 28,2 km/h (4 Bft)
14.08.2014 06:08 13,7 C 12,8 C 92 % 1008,4 hPa 0,0 l/m 0 min 0 min 0,0 UV-I 0 W/m 28,2 km/h (4 Bft)
14.08.2014 06:10 13,7 C 12,8 C 92 % 1008,4 hPa 0,0 l/m 0 min 0 min 0,0 UV-I 0 W/m 24,7 km/h (4 Bft)
14.08.2014 06:12 13,7 C 12,8 C 92 % 1008,4 hPa 0,0 l/m 0 min 0 min 0,0 UV-I 0 W/m 28,2 km/h (4 Bft)
14.08.2014 06:14 13,8 C 12,8 C 92 % 1008,5 hPa 0,0 l/m 0 min 0 min 0,0 UV-I 0 W/m 21,3 km/h (4 Bft)
14.08.2014 06:16 13,8 C 12,8 C 92 % 1008,5 hPa 0,0 l/m 0 min 0 min 0,0 UV-I 0 W/m 17,7 km/h (3 Bft)
14.08.2014 06:18 13,8 C 12,8 C 91 % 1008,5 hPa 0,0 l/m 0 min 0 min 0,0 UV-I 0 W/m 28,2 km/h (4 Bft)
14.08.2014 06:20 13,9 C 12,8 C 91 % 1008,6 hPa 0,0 l/m 0 min 0 min 0,0 UV-I 0 W/m 21,3 km/h (4 Bft)
14.08.2014 06:22 13,9 C 12,8 C 91 % 1008,6 hPa 0,0 l/m 0 min 0 min 0,0 UV-I 0 W/m 24,7 km/h (4 Bft)
14.08.2014 06:24 13,9 C 12,8 C 91 % 1008,6 hPa 0,0 l/m 0 min 0 min 0,0 UV-I 0 W/m 17,7 km/h (3 Bft)
14.08.2014 06:26 14,0 C 12,8 C 91 % 1008,6 hPa 0,0 l/m 0 min 0 min 0,0 UV-I 7 W/m 21,3 km/h (4 Bft)
14.08.2014 06:28 14,0 C 12,8 C 91 % 1008,6 hPa 0,0 l/m 0 min 0 min 0,0 UV-I 9 W/m 21,3 km/h (4 Bft)
14.08.2014 06:30 14,1 C 12,8 C 91 % 1008,6 hPa 0,0 l/m 0 min 0 min 0,0 UV-I 9 W/m 21,3 km/h (4 Bft)
14.08.2014 06:32 14,1 C 12,8 C 91 % 1008,6 hPa 0,0 l/m 0 min 0 min 0,0 UV-I 11 W/m 10,7 km/h (2 Bft)
14.08.2014 06:34 14,1 C 12,8 C 91 % 1008,7 hPa 0,0 l/m 0 min 0 min 0,0 UV-I 12 W/m 21,3 km/h (4 Bft)
14.08.2014 06:36 14,2 C 12,8 C 90 % 1008,7 hPa 0,0 l/m 0 min 0 min 0,0 UV-I 11 W/m 7,1 km/h (2 Bft)
14.08.2014 06:38 14,2 C 12,8 C 90 % 1008,6 hPa 0,0 l/m 0 min 0 min 0,0 UV-I 11 W/m 14,2 km/h (3 Bft)
14.08.2014 06:40 14,2 C 13,3 C 90 % 1008,7 hPa 0,0 l/m 0 min 0 min 0,0 UV-I 11 W/m 21,3 km/h (4 Bft)
14.08.2014 06:42 14,2 C 13,3 C 90 % 1008,6 hPa 0,0 l/m 0 min 0 min 0,0 UV-I 12 W/m 28,2 km/h (4 Bft)
14.08.2014 06:44 14,2 C 13,3 C 90 % 1008,6 hPa 0,0 l/m 0 min 0 min 0,0 UV-I 13 W/m 10,7 km/h (2 Bft)
14.08.2014 06:46 14,2 C 13,3 C 90 % 1008,7 hPa 0,0 l/m 0 min 0 min 0,0 UV-I 16 W/m 24,7 km/h (4 Bft)
14.08.2014 06:48 14,2 C 13,3 C 90 % 1008,7 hPa 0,0 l/m 0 min 0 min 0,0 UV-I 18 W/m 21,3 km/h (4 Bft)
14.08.2014 06:50 14,2 C 13,3 C 90 % 1008,7 hPa 0,0 l/m 0 min 0 min 0,0 UV-I 18 W/m 10,7 km/h (2 Bft)
14.08.2014 06:52 14,2 C 13,3 C 90 % 1008,8 hPa 0,0 l/m 0 min 0 min 0,0 UV-I 18 W/m 21,3 km/h (4 Bft)
14.08.2014 06:54 14,3 C 13,3 C 90 % 1008,8 hPa 0,0 l/m 0 min 0 min 0,0 UV-I 17 W/m 21,3 km/h (4 Bft)
14.08.2014 06:56 14,3 C 13,3 C 90 % 1008,8 hPa 0,0 l/m 0 min 0 min 0,0 UV-I 16 W/m 14,2 km/h (3 Bft)
14.08.2014 06:58 14,3 C 13,3 C 90 % 1008,9 hPa 0,0 l/m 0 min 0 min 0,0 UV-I 16 W/m 21,3 km/h (4 Bft)
14.08.2014 07:00 14,3 C 13,3 C 89 % 1008,9 hPa 0,0 l/m 0 min 0 min 0,0 UV-I 18 W/m 21,3 km/h (4 Bft)
14.08.2014 07:02 14,4 C 13,3 C 89 % 1008,8 hPa 0,0 l/m 0 min 0 min 0,0 UV-I 19 W/m 24,7 km/h (4 Bft)
14.08.2014 07:04 14,4 C 13,3 C 89 % 1008,8 hPa 0,0 l/m 0 min 0 min 0,0 UV-I 20 W/m 24,7 km/h (4 Bft)
14.08.2014 07:06 14,4 C 13,3 C 89 % 1008,9 hPa 0,0 l/m 0 min 0 min 0,0 UV-I 23 W/m 24,7 km/h (4 Bft)
14.08.2014 07:08 14,4 C 13,3 C 89 % 1008,9 hPa 0,0 l/m 0 min 0 min 0,0 UV-I 26 W/m 24,7 km/h (4 Bft)
14.08.2014 07:10 14,4 C 13,3 C 89 % 1008,9 hPa 0,0 l/m 0 min 0 min 0,0 UV-I 28 W/m 10,7 km/h (2 Bft)
14.08.2014 07:12 14,4 C 13,3 C 89 % 1008,9 hPa 0,0 l/m 0 min 0 min 0,0 UV-I 30 W/m 24,7 km/h (4 Bft)
14.08.2014 07:14 14,4 C 13,3 C 89 % 1008,9 hPa 0,0 l/m 0 min 0 min 0,0 UV-I 33 W/m 21,3 km/h (4 Bft)
14.08.2014 07:16 14,4 C 13,3 C 89 % 1008,9 hPa 0,0 l/m 0 min 0 min 0,0 UV-I 34 W/m 21,3 km/h (4 Bft)
14.08.2014 07:18 14,4 C 13,3 C 89 % 1008,9 hPa 0,0 l/m 0 min 0 min 0,0 UV-I 35 W/m 17,7 km/h (3 Bft)
14.08.2014 07:20 14,4 C 13,3 C 89 % 1009,0 hPa 0,0 l/m 0 min 0 min 0,0 UV-I 39 W/m 21,3 km/h (4 Bft)
14.08.2014 07:22 14,4 C 13,3 C 89 % 1008,9 hPa 0,0 l/m 0 min 0 min 0,0 UV-I 43 W/m 28,2 km/h (4 Bft)
14.08.2014 07:24 14,4 C 13,3 C 89 % 1008,9 hPa 0,0 l/m 0 min 0 min 0,0 UV-I 47 W/m 28,2 km/h (4 Bft)
14.08.2014 07:26 14,4 C 13,3 C 89 % 1008,9 hPa 0,0 l/m 0 min 0 min 0,0 UV-I 50 W/m 28,2 km/h (4 Bft)
14.08.2014 07:28 14,5 C 13,3 C 89 % 1008,9 hPa 0,0 l/m 0 min 0 min 0,0 UV-I 52 W/m 28,2 km/h (4 Bft)
14.08.2014 07:30 14,5 C 13,3 C 89 % 1008,9 hPa 0,0 l/m 0 min 0 min 0,0 UV-I 54 W/m 21,3 km/h (4 Bft)
14.08.2014 07:32 14,5 C 13,3 C 89 % 1008,9 hPa 0,0 l/m 0 min 0 min 0,0 UV-I 56 W/m 21,3 km/h (4 Bft)
14.08.2014 07:34 14,5 C 13,3 C 89 % 1008,9 hPa 0,0 l/m 0 min 0 min 0,0 UV-I 59 W/m 24,7 km/h (4 Bft)
14.08.2014 07:36 14,5 C 13,9 C 90 % 1008,9 hPa 0,0 l/m 0 min 0 min 0,0 UV-I 62 W/m 24,7 km/h (4 Bft)
14.08.2014 07:38 14,6 C 13,3 C 90 % 1009,0 hPa 0,0 l/m 0 min 0 min 0,0 UV-I 62 W/m 17,7 km/h (3 Bft)
14.08.2014 07:40 14,6 C 13,9 C 90 % 1009,0 hPa 0,0 l/m 0 min 0 min 0,0 UV-I 63 W/m 28,2 km/h (4 Bft)
14.08.2014 07:42 14,6 C 13,9 C 90 % 1009,0 hPa 0,0 l/m 0 min 0 min 0,0 UV-I 70 W/m 24,7 km/h (4 Bft)
14.08.2014 07:44 14,6 C 13,9 C 90 % 1009,0 hPa 0,0 l/m 0 min 0 min 0,0 UV-I 76 W/m 24,7 km/h (4 Bft)
14.08.2014 07:46 14,6 C 13,9 C 90 % 1008,9 hPa 0,0 l/m 0 min 0 min 0,0 UV-I 85 W/m 24,7 km/h (4 Bft)
14.08.2014 07:48 14,6 C 13,9 C 90 % 1008,9 hPa 0,0 l/m 0 min 0 min 0,0 UV-I 93 W/m 21,3 km/h (4 Bft)
14.08.2014 07:50 14,7 C 13,9 C 90 % 1008,9 hPa 0,0 l/m 0 min 0 min 0,0 UV-I 97 W/m 24,7 km/h (4 Bft)
14.08.2014 07:52 14,7 C 13,9 C 90 % 1008,9 hPa 0,0 l/m 0 min 0 min 0,0 UV-I 101 W/m 31,7 km/h (5 Bft)
14.08.2014 07:54 14,7 C 13,9 C 89 % 1008,9 hPa 0,0 l/m 0 min 0 min 0,0 UV-I 104 W/m 38,9 km/h (6 Bft)
14.08.2014 07:56 14,7 C 13,9 C 89 % 1008,9 hPa 0,0 l/m 0 min 0 min 0,0 UV-I 104 W/m 21,3 km/h (4 Bft)
14.08.2014 07:58 14,7 C 13,9 C 89 % 1008,9 hPa 0,0 l/m 0 min 0 min 0,0 UV-I 104 W/m 42,4 km/h (6 Bft)
14.08.2014 08:00 14,8 C 13,9 C 89 % 1008,9 hPa 0,0 l/m 0 min 0 min 0,0 UV-I 98 W/m 28,2 km/h (4 Bft)
14.08.2014 08:02 14,8 C 13,9 C 89 % 1009,0 hPa 0,0 l/m 0 min 0 min 0,0 UV-I 99 W/m 35,4 km/h (5 Bft)
14.08.2014 08:04 14,8 C 13,9 C 89 % 1009,0 hPa 0,0 l/m 0 min 0 min 0,0 UV-I 95 W/m 31,7 km/h (5 Bft)
14.08.2014 08:06 14,8 C 13,9 C 89 % 1008,9 hPa 0,0 l/m 0 min 0 min 0,0 UV-I 92 W/m 38,9 km/h (6 Bft)
14.08.2014 08:08 14,8 C 13,9 C 89 % 1008,9 hPa 0,0 l/m 0 min 0 min 0,0 UV-I 95 W/m 31,7 km/h (5 Bft)
14.08.2014 08:10 14,8 C 13,9 C 89 % 1009,0 hPa 0,0 l/m 0 min 0 min 0,0 UV-I 95 W/m 31,7 km/h (5 Bft)
14.08.2014 08:12 14,8 C 13,9 C 89 % 1009,0 hPa 0,0 l/m 0 min 0 min 0,0 UV-I 97 W/m 14,2 km/h (3 Bft)
14.08.2014 08:14 14,8 C 13,9 C 89 % 1009,0 hPa 0,0 l/m 0 min 0 min 0,0 UV-I 101 W/m 14,2 km/h (3 Bft)
14.08.2014 08:16 14,9 C 13,9 C 89 % 1009,0 hPa 0,0 l/m 0 min 0 min 0,0 UV-I 95 W/m 21,3 km/h (4 Bft)
14.08.2014 08:18 14,9 C 14,4 C 90 % 1009,0 hPa 0,0 l/m 0 min 0 min 0,0 UV-I 86 W/m 28,2 km/h (4 Bft)
14.08.2014 08:20 14,9 C 13,9 C 89 % 1009,0 hPa 0,0 l/m 0 min 0 min 0,0 UV-I 81 W/m 35,4 km/h (5 Bft)
14.08.2014 08:22 14,9 C 13,9 C 89 % 1009,1 hPa 0,0 l/m 0 min 0 min 0,0 UV-I 77 W/m 24,7 km/h (4 Bft)
14.08.2014 08:24 14,9 C 13,9 C 89 % 1009,1 hPa 0,0 l/m 0 min 0 min 0,0 UV-I 79 W/m 17,7 km/h (3 Bft)
14.08.2014 08:26 15,0 C 14,4 C 90 % 1009,1 hPa 0,0 l/m 0 min 0 min 0,0 UV-I 88 W/m 3,5 km/h (1 Bft)
14.08.2014 08:28 15,0 C 14,4 C 90 % 1009,1 hPa 0,0 l/m 0 min 0 min 0,0 UV-I 95 W/m 21,3 km/h (4 Bft)
14.08.2014 08:30 15,0 C 14,4 C 90 % 1009,1 hPa 0,0 l/m 0 min 0 min 0,0 UV-I 102 W/m 17,7 km/h (3 Bft)
14.08.2014 08:32 15,0 C 14,4 C 89 % 1009,1 hPa 0,0 l/m 0 min 0 min 0,0 UV-I 111 W/m 24,7 km/h (4 Bft)
14.08.2014 08:34 15,0 C 14,4 C 89 % 1009,1 hPa 0,0 l/m 0 min 0 min 0,0 UV-I 123 W/m 35,4 km/h (5 Bft)
14.08.2014 08:36 15,0 C 14,4 C 89 % 1009,2 hPa 0,0 l/m 0 min 0 min 0,0 UV-I 121 W/m 28,2 km/h (4 Bft)
14.08.2014 08:38 15,1 C 14,4 C 89 % 1009,1 hPa 0,0 l/m 0 min 0 min 0,0 UV-I 122 W/m 28,2 km/h (4 Bft)
14.08.2014 08:40 15,1 C 14,4 C 89 % 1009,2 hPa 0,0 l/m 0 min 0 min 0,0 UV-I 128 W/m 31,7 km/h (5 Bft)
14.08.2014 08:42 15,1 C 14,4 C 89 % 1009,1 hPa 0,0 l/m 0 min 0 min 0,0 UV-I 118 W/m 28,2 km/h (4 Bft)
14.08.2014 08:44 15,2 C 14,4 C 89 % 1009,2 hPa 0,0 l/m 0 min 0 min 0,0 UV-I 109 W/m 38,9 km/h (6 Bft)
14.08.2014 08:46 15,2 C 14,4 C 89 % 1009,2 hPa 0,0 l/m 0 min 0 min 0,0 UV-I 102 W/m 28,2 km/h (4 Bft)
14.08.2014 08:48 15,2 C 14,4 C 89 % 1009,2 hPa 0,0 l/m 0 min 0 min 0,0 UV-I 93 W/m 53,0 km/h (7 Bft)
14.08.2014 08:50 15,2 C 14,4 C 89 % 1009,2 hPa 0,0 l/m 0 min 0 min 0,0 UV-I 86 W/m 17,7 km/h (3 Bft)
14.08.2014 08:52 15,2 C 14,4 C 89 % 1009,3 hPa 0,0 l/m 0 min 0 min 0,0 UV-I 87 W/m 35,4 km/h (5 Bft)
14.08.2014 08:54 15,2 C 14,4 C 89 % 1009,2 hPa 0,0 l/m 0 min 0 min 0,0 UV-I 95 W/m 31,7 km/h (5 Bft)
14.08.2014 08:56 15,2 C 14,4 C 89 % 1009,3 hPa 0,0 l/m 0 min 0 min 0,0 UV-I 98 W/m 24,7 km/h (4 Bft)
14.08.2014 08:58 15,2 C 14,4 C 89 % 1009,3 hPa 0,0 l/m 0 min 0 min 0,0 UV-I 102 W/m 35,4 km/h (5 Bft)
14.08.2014 09:00 15,3 C 14,4 C 89 % 1009,3 hPa 0,0 l/m 0 min 0 min 0,0 UV-I 102 W/m 46,0 km/h (6 Bft)
14.08.2014 09:02 15,3 C 14,4 C 89 % 1009,2 hPa 0,0 l/m 0 min 0 min 0,0 UV-I 104 W/m 42,4 km/h (6 Bft)
14.08.2014 09:04 15,3 C 14,4 C 89 % 1009,3 hPa 0,0 l/m 0 min 0 min 0,0 UV-I 109 W/m 28,2 km/h (4 Bft)
14.08.2014 09:06 15,3 C 14,4 C 89 % 1009,3 hPa 0,0 l/m 0 min 0 min 0,0 UV-I 118 W/m 42,4 km/h (6 Bft)
14.08.2014 09:08 15,3 C 15,0 C 90 % 1009,4 hPa 0,0 l/m 0 min 0 min 0,0 UV-I 127 W/m 46,0 km/h (6 Bft)
14.08.2014 09:10 15,3 C 15,0 C 89 % 1009,3 hPa 0,0 l/m 0 min 0 min 0,0 UV-I 123 W/m 38,9 km/h (6 Bft)
14.08.2014 09:12 15,4 C 15,0 C 89 % 1009,3 hPa 0,0 l/m 0 min 0 min 0,0 UV-I 119 W/m 42,4 km/h (6 Bft)
14.08.2014 09:14 15,4 C 15,0 C 89 % 1009,3 hPa 0,0 l/m 0 min 0 min 0,0 UV-I 124 W/m 28,2 km/h (4 Bft)
14.08.2014 09:16 15,5 C 15,0 C 89 % 1009,3 hPa 0,0 l/m 0 min 0 min 0,0 UV-I 138 W/m 49,5 km/h (6 Bft)
14.08.2014 09:18 15,5 C 15,0 C 89 % 1009,3 hPa 0,0 l/m 0 min 0 min 0,0 UV-I 142 W/m 49,5 km/h (6 Bft)
14.08.2014 09:20 15,5 C 15,0 C 89 % 1009,3 hPa 0,0 l/m 0 min 0 min 0,0 UV-I 144 W/m 38,9 km/h (6 Bft)
14.08.2014 09:22 15,6 C 15,0 C 89 % 1009,3 hPa 0,0 l/m 0 min 0 min 0,0 UV-I 165 W/m 31,7 km/h (5 Bft)
14.08.2014 09:24 15,6 C 15,0 C 89 % 1009,2 hPa 0,0 l/m 0 min 0 min 0,0 UV-I 206 W/m 35,4 km/h (5 Bft)
14.08.2014 09:26 15,6 C 15,0 C 89 % 1009,3 hPa 0,0 l/m 2 min 0 min 0,5 UV-I 250 W/m 28,2 km/h (4 Bft)
14.08.2014 09:28 15,7 C 15,6 C 89 % 1009,3 hPa 0,0 l/m 2 min 0 min 0,5 UV-I 255 W/m 38,9 km/h (6 Bft)
14.08.2014 09:30 15,8 C 15,6 C 89 % 1009,2 hPa 0,0 l/m 2 min 0 min 0,5 UV-I 238 W/m 28,2 km/h (4 Bft)
14.08.2014 09:32 15,9 C 15,6 C 89 % 1009,3 hPa 0,0 l/m 0 min 0 min 0,5 UV-I 233 W/m 28,2 km/h (4 Bft)
14.08.2014 09:34 16,0 C 15,6 C 88 % 1009,2 hPa 0,0 l/m 0 min 0 min 0,0 UV-I 207 W/m 31,7 km/h (5 Bft)
14.08.2014 09:36 16,0 C 15,6 C 88 % 1009,3 hPa 0,0 l/m 0 min 0 min 0,0 UV-I 165 W/m 31,7 km/h (5 Bft)
14.08.2014 09:38 16,0 C 15,6 C 88 % 1009,3 hPa 0,0 l/m 0 min 0 min 0,0 UV-I 161 W/m 46,0 km/h (6 Bft)
14.08.2014 09:40 15,9 C 15,6 C 88 % 1009,3 hPa 0,0 l/m 0 min 0 min 0,0 UV-I 142 W/m 35,4 km/h (5 Bft)
14.08.2014 09:42 15,9 C 15,6 C 88 % 1009,4 hPa 0,0 l/m 0 min 0 min 0,0 UV-I 135 W/m 28,2 km/h (4 Bft)
14.08.2014 09:44 15,9 C 15,6 C 88 % 1009,4 hPa 0,0 l/m 0 min 0 min 0,0 UV-I 160 W/m 31,7 km/h (5 Bft)
14.08.2014 09:46 16,0 C 15,6 C 88 % 1009,4 hPa 0,0 l/m 0 min 0 min 0,3 UV-I 204 W/m 21,3 km/h (4 Bft)
14.08.2014 09:48 16,1 C 15,6 C 88 % 1009,3 hPa 0,0 l/m 0 min 0 min 0,5 UV-I 229 W/m 24,7 km/h (4 Bft)
14.08.2014 09:50 16,1 C 16,1 C 88 % 1009,3 hPa 0,0 l/m 2 min 0 min 0,8 UV-I 293 W/m 28,2 km/h (4 Bft)
14.08.2014 09:52 16,2 C 16,1 C 88 % 1009,2 hPa 0,0 l/m 2 min 0 min 0,9 UV-I 385 W/m 28,2 km/h (4 Bft)
14.08.2014 09:54 16,4 C 16,7 C 88 % 1009,3 hPa 0,0 l/m 2 min 0 min 1,0 UV-I 320 W/m 21,3 km/h (4 Bft)
14.08.2014 09:56 16,5 C 16,7 C 88 % 1009,3 hPa 0,0 l/m 2 min 0 min 1,1 UV-I 273 W/m 28,2 km/h (4 Bft)
14.08.2014 09:58 16,6 C 17,2 C 87 % 1009,3 hPa 0,0 l/m 2 min 0 min 1,3 UV-I 295 W/m 21,3 km/h (4 Bft)
14.08.2014 10:00 16,6 C 17,2 C 87 % 1009,3 hPa 0,0 l/m 2 min 0 min 1,2 UV-I 264 W/m 31,7 km/h (5 Bft)
14.08.2014 10:02 16,7 C 17,2 C 87 % 1009,3 hPa 0,0 l/m 0 min 0 min 1,1 UV-I 262 W/m 56,5 km/h (7 Bft)
14.08.2014 10:04 16,7 C 16,7 C 86 % 1009,3 hPa 0,0 l/m 2 min 0 min 1,0 UV-I 294 W/m 35,4 km/h (5 Bft)
14.08.2014 10:06 16,7 C 16,7 C 86 % 1009,3 hPa 0,0 l/m 2 min 0 min 1,0 UV-I 312 W/m 38,9 km/h (6 Bft)
14.08.2014 10:08 16,7 C 16,1 C 86 % 1009,3 hPa 0,0 l/m 0 min 0 min 0,8 UV-I 246 W/m 38,9 km/h (6 Bft)
14.08.2014 10:10 16,6 C 16,1 C 86 % 1009,3 hPa 0,0 l/m 0 min 0 min 0,8 UV-I 230 W/m 53,0 km/h (7 Bft)
14.08.2014 10:12 16,6 C 16,1 C 86 % 1009,4 hPa 0,0 l/m 2 min 0 min 0,9 UV-I 292 W/m 42,4 km/h (6 Bft)
14.08.2014 10:14 16,6 C 16,1 C 86 % 1009,3 hPa 0,0 l/m 0 min 0 min 0,7 UV-I 255 W/m 42,4 km/h (6 Bft)
14.08.2014 10:16 16,7 C 16,7 C 87 % 1009,3 hPa 0,0 l/m 0 min 0 min 0,7 UV-I 251 W/m 21,3 km/h (4 Bft)
14.08.2014 10:18 16,7 C 16,7 C 87 % 1009,4 hPa 0,0 l/m 0 min 0 min 0,3 UV-I 210 W/m 28,2 km/h (4 Bft)
14.08.2014 10:20 16,7 C 16,1 C 87 % 1009,4 hPa 0,0 l/m 0 min 0 min 0,0 UV-I 173 W/m 31,7 km/h (5 Bft)
14.08.2014 10:22 16,7 C 16,1 C 86 % 1009,4 hPa 0,0 l/m 0 min 0 min 0,0 UV-I 186 W/m 42,4 km/h (6 Bft)
14.08.2014 10:24 16,6 C 16,1 C 86 % 1009,4 hPa 0,0 l/m 0 min 0 min 0,0 UV-I 169 W/m 42,4 km/h (6 Bft)
14.08.2014 10:26 16,6 C 16,1 C 86 % 1009,4 hPa 0,0 l/m 0 min 0 min 0,1 UV-I 173 W/m 24,7 km/h (4 Bft)
14.08.2014 10:28 16,6 C 16,1 C 86 % 1009,4 hPa 0,0 l/m 0 min 0 min 0,6 UV-I 215 W/m 38,9 km/h (6 Bft)
14.08.2014 10:30 16,6 C 16,1 C 86 % 1009,4 hPa 0,0 l/m 0 min 0 min 0,7 UV-I 225 W/m 42,4 km/h (6 Bft)
14.08.2014 10:32 16,6 C 16,1 C 86 % 1009,4 hPa 0,0 l/m 0 min 0 min 0,8 UV-I 235 W/m 49,5 km/h (6 Bft)
14.08.2014 10:34 16,6 C 16,1 C 86 % 1009,4 hPa 0,0 l/m 0 min 0 min 0,8 UV-I 252 W/m 42,4 km/h (6 Bft)
14.08.2014 10:36 16,7 C 16,1 C 86 % 1009,5 hPa 0,0 l/m 0 min 0 min 0,5 UV-I 215 W/m 53,0 km/h (7 Bft)
14.08.2014 10:38 16,7 C 16,1 C 86 % 1009,5 hPa 0,0 l/m 0 min 0 min 0,1 UV-I 192 W/m 42,4 km/h (6 Bft)
14.08.2014 10:40 16,7 C 16,1 C 86 % 1009,5 hPa 0,0 l/m 0 min 0 min 0,7 UV-I 250 W/m 35,4 km/h (5 Bft)
14.08.2014 10:42 16,7 C 16,1 C 86 % 1009,5 hPa 0,0 l/m 0 min 0 min 0,8 UV-I 254 W/m 46,0 km/h (6 Bft)
14.08.2014 10:44 16,7 C 16,7 C 86 % 1009,5 hPa 0,0 l/m 0 min 0 min 0,6 UV-I 230 W/m 31,7 km/h (5 Bft)
14.08.2014 10:46 16,8 C 16,7 C 87 % 1009,6 hPa 0,0 l/m 0 min 0 min 0,5 UV-I 210 W/m 31,7 km/h (5 Bft)
14.08.2014 10:48 16,8 C 16,7 C 86 % 1009,6 hPa 0,0 l/m 0 min 0 min 0,7 UV-I 229 W/m 28,2 km/h (4 Bft)
14.08.2014 10:50 16,9 C 16,7 C 87 % 1009,6 hPa 0,0 l/m 0 min 0 min 1,1 UV-I 257 W/m 42,4 km/h (6 Bft)
14.08.2014 10:52 16,9 C 16,7 C 86 % 1009,6 hPa 0,0 l/m 0 min 0 min 1,2 UV-I 296 W/m 63,7 km/h (8 Bft)
14.08.2014 10:54 16,9 C 17,2 C 86 % 1009,7 hPa 0,0 l/m 2 min 0 min 1,3 UV-I 370 W/m 46,0 km/h (6 Bft)
14.08.2014 10:56 17,0 C 16,7 C 86 % 1009,7 hPa 0,0 l/m 0 min 0 min 0,9 UV-I 279 W/m 38,9 km/h (6 Bft)
14.08.2014 10:58 17,1 C 16,7 C 86 % 1009,7 hPa 0,0 l/m 0 min 0 min 1,0 UV-I 238 W/m 46,0 km/h (6 Bft)
14.08.2014 11:00 17,0 C 16,7 C 86 % 1009,7 hPa 0,0 l/m 0 min 0 min 1,4 UV-I 297 W/m 53,0 km/h (7 Bft)
14.08.2014 11:02 17,1 C 17,2 C 85 % 1009,7 hPa 0,0 l/m 2 min 0 min 1,8 UV-I 390 W/m 49,5 km/h (6 Bft)
14.08.2014 11:04 17,1 C 17,2 C 85 % 1009,8 hPa 0,0 l/m 2 min 0 min 2,0 UV-I 441 W/m 42,4 km/h (6 Bft)
14.08.2014 11:06 17,2 C 17,2 C 85 % 1009,7 hPa 0,0 l/m 2 min 0 min 1,7 UV-I 552 W/m 46,0 km/h (6 Bft)
14.08.2014 11:08 17,3 C 17,2 C 85 % 1009,7 hPa 0,0 l/m 2 min 0 min 1,2 UV-I 347 W/m 35,4 km/h (5 Bft)
14.08.2014 11:10 17,3 C 17,2 C 85 % 1009,7 hPa 0,0 l/m 0 min 0 min 1,4 UV-I 302 W/m 28,2 km/h (4 Bft)
14.08.2014 11:12 17,4 C 17,2 C 85 % 1009,8 hPa 0,0 l/m 0 min 0 min 1,1 UV-I 279 W/m 35,4 km/h (5 Bft)
14.08.2014 11:14 17,4 C 17,2 C 85 % 1009,8 hPa 0,0 l/m 0 min 0 min 1,1 UV-I 256 W/m 38,9 km/h (6 Bft)
14.08.2014 11:16 17,4 C 17,2 C 85 % 1009,7 hPa 0,0 l/m 0 min 0 min 1,1 UV-I 253 W/m 42,4 km/h (6 Bft)
14.08.2014 11:18 17,4 C 17,2 C 84 % 1009,8 hPa 0,0 l/m 0 min 0 min 0,9 UV-I 232 W/m 42,4 km/h (6 Bft)
14.08.2014 11:20 17,4 C 17,2 C 85 % 1009,8 hPa 0,0 l/m 0 min 0 min 1,0 UV-I 250 W/m 21,3 km/h (4 Bft)
14.08.2014 11:22 17,4 C 17,2 C 85 % 1009,8 hPa 0,0 l/m 0 min 0 min 1,3 UV-I 293 W/m 38,9 km/h (6 Bft)
14.08.2014 11:24 17,4 C 17,2 C 85 % 1009,8 hPa 0,0 l/m 0 min 0 min 1,1 UV-I 274 W/m 31,7 km/h (5 Bft)
14.08.2014 11:26 17,4 C 17,2 C 85 % 1009,8 hPa 0,0 l/m 0 min 0 min 1,0 UV-I 285 W/m 35,4 km/h (5 Bft)
14.08.2014 11:28 17,4 C 17,2 C 85 % 1009,8 hPa 0,0 l/m 2 min 0 min 1,6 UV-I 357 W/m 31,7 km/h (5 Bft)
14.08.2014 11:30 17,6 C 17,8 C 85 % 1009,7 hPa 0,0 l/m 2 min 0 min 1,6 UV-I 346 W/m 38,9 km/h (6 Bft)
14.08.2014 11:32 17,7 C 17,8 C 85 % 1009,8 hPa 0,0 l/m 0 min 0 min 1,6 UV-I 339 W/m 42,4 km/h (6 Bft)
14.08.2014 11:34 17,7 C 17,8 C 84 % 1009,8 hPa 0,0 l/m 0 min 0 min 1,4 UV-I 318 W/m 42,4 km/h (6 Bft)
14.08.2014 11:36 17,6 C 17,2 C 84 % 1009,8 hPa 0,0 l/m 0 min 0 min 1,2 UV-I 291 W/m 46,0 km/h (6 Bft)
14.08.2014 11:38 17,5 C 17,2 C 84 % 1009,9 hPa 0,0 l/m 0 min 0 min 1,2 UV-I 291 W/m 28,2 km/h (4 Bft)
14.08.2014 11:40 17,4 C 17,2 C 85 % 1009,9 hPa 0,0 l/m 0 min 0 min 1,2 UV-I 293 W/m 38,9 km/h (6 Bft)
14.08.2014 11:42 17,4 C 17,2 C 85 % 1009,9 hPa 0,0 l/m 0 min 0 min 1,2 UV-I 295 W/m 38,9 km/h (6 Bft)
14.08.2014 11:44 17,4 C 17,2 C 84 % 1009,8 hPa 0,0 l/m 0 min 0 min 1,4 UV-I 308 W/m 63,7 km/h (8 Bft)
14.08.2014 11:46 17,3 C 17,2 C 84 % 1009,9 hPa 0,0 l/m 0 min 0 min 1,5 UV-I 320 W/m 42,4 km/h (6 Bft)
14.08.2014 11:48 17,3 C 17,2 C 84 % 1009,8 hPa 0,0 l/m 0 min 0 min 1,5 UV-I 328 W/m 49,5 km/h (6 Bft)
14.08.2014 11:50 17,3 C 17,2 C 84 % 1009,8 hPa 0,0 l/m 0 min 0 min 1,5 UV-I 324 W/m 49,5 km/h (6 Bft)
14.08.2014 11:52 17,4 C 17,2 C 85 % 1009,8 hPa 0,0 l/m 0 min 0 min 1,4 UV-I 303 W/m 46,0 km/h (6 Bft)
14.08.2014 11:54 17,3 C 17,2 C 84 % 1009,9 hPa 0,0 l/m 0 min 0 min 1,4 UV-I 291 W/m 53,0 km/h (7 Bft)
14.08.2014 11:56 17,3 C 17,2 C 85 % 1009,8 hPa 0,0 l/m 0 min 0 min 1,4 UV-I 288 W/m 38,9 km/h (6 Bft)
14.08.2014 11:58 17,3 C 17,2 C 85 % 1009,8 hPa 0,0 l/m 0 min 0 min 1,3 UV-I 284 W/m 35,4 km/h (5 Bft)
14.08.2014 12:00 17,5 C 17,2 C 86 % 1009,8 hPa 0,0 l/m 0 min 0 min 1,3 UV-I 281 W/m 24,7 km/h (4 Bft)
14.08.2014 12:02 17,6 C 17,2 C 86 % 1009,8 hPa 0,0 l/m 0 min 0 min 1,3 UV-I 278 W/m 24,7 km/h (4 Bft)
14.08.2014 12:06 17,4 C 17,2 C 85 % 1009,9 hPa 0,0 l/m 0 min 0 min 1,3 UV-I 268 W/m 49,5 km/h (6 Bft)
14.08.2014 12:08 17,4 C 17,2 C 85 % 1009,9 hPa 0,0 l/m 0 min 0 min 1,1 UV-I 242 W/m 38,9 km/h (6 Bft)
14.08.2014 12:10 17,3 C 17,2 C 85 % 1009,9 hPa 0,0 l/m 0 min 0 min 1,2 UV-I 247 W/m 42,4 km/h (6 Bft)
14.08.2014 12:12 17,3 C 17,2 C 85 % 1009,9 hPa 0,0 l/m 0 min 0 min 1,0 UV-I 227 W/m 28,2 km/h (4 Bft)
14.08.2014 12:14 17,3 C 17,2 C 85 % 1009,9 hPa 0,0 l/m 0 min 0 min 1,4 UV-I 273 W/m 31,7 km/h (5 Bft)
14.08.2014 12:16 17,3 C 17,2 C 85 % 1009,9 hPa 0,0 l/m 0 min 0 min 1,7 UV-I 317 W/m 42,4 km/h (6 Bft)
14.08.2014 12:18 17,3 C 17,2 C 85 % 1009,9 hPa 0,0 l/m 0 min 0 min 1,9 UV-I 344 W/m 38,9 km/h (6 Bft)
14.08.2014 12:20 17,4 C 17,8 C 86 % 1009,9 hPa 0,0 l/m 2 min 0 min 2,1 UV-I 390 W/m 35,4 km/h (5 Bft)
14.08.2014 12:22 17,7 C 17,8 C 86 % 1010,0 hPa 0,0 l/m 0 min 0 min 1,8 UV-I 360 W/m 28,2 km/h (4 Bft)
14.08.2014 12:24 17,8 C 17,8 C 85 % 1009,9 hPa 0,0 l/m 0 min 0 min 1,8 UV-I 352 W/m 38,9 km/h (6 Bft)
14.08.2014 12:26 17,8 C 17,8 C 84 % 1009,9 hPa 0,0 l/m 2 min 0 min 2,1 UV-I 378 W/m 35,4 km/h (5 Bft)
14.08.2014 12:28 17,8 C 17,8 C 84 % 1009,8 hPa 0,0 l/m 2 min 0 min 2,1 UV-I 382 W/m 46,0 km/h (6 Bft)
14.08.2014 12:30 17,8 C 18,3 C 84 % 1009,9 hPa 0,0 l/m 2 min 0 min 2,4 UV-I 436 W/m 42,4 km/h (6 Bft)
14.08.2014 12:32 17,9 C 18,3 C 84 % 1009,9 hPa 0,0 l/m 2 min 0 min 2,8 UV-I 463 W/m 35,4 km/h (5 Bft)
14.08.2014 12:34 18,1 C 18,3 C 84 % 1009,8 hPa 0,0 l/m 2 min 0 min 2,7 UV-I 469 W/m 31,7 km/h (5 Bft)
14.08.2014 12:36 18,2 C 18,9 C 84 % 1009,8 hPa 0,0 l/m 2 min 0 min 2,6 UV-I 459 W/m 31,7 km/h (5 Bft)
14.08.2014 12:38 18,3 C 18,9 C 84 % 1009,8 hPa 0,0 l/m 2 min 0 min 3,4 UV-I 575 W/m 35,4 km/h (5 Bft)
14.08.2014 12:40 18,5 C 19,4 C 83 % 1009,7 hPa 0,0 l/m 2 min 0 min 4,0 UV-I 919 W/m 38,9 km/h (6 Bft)
14.08.2014 12:42 18,7 C 19,4 C 83 % 1009,7 hPa 0,0 l/m 2 min 0 min 3,2 UV-I 931 W/m 49,5 km/h (6 Bft)
14.08.2014 12:44 18,9 C 19,4 C 82 % 1009,6 hPa 0,0 l/m 2 min 0 min 2,8 UV-I 551 W/m 38,9 km/h (6 Bft)
14.08.2014 12:46 18,8 C 18,9 C 81 % 1009,6 hPa 0,0 l/m 2 min 0 min 2,3 UV-I 455 W/m 49,5 km/h (6 Bft)
14.08.2014 12:48 18,7 C 18,9 C 80 % 1009,6 hPa 0,0 l/m 0 min 0 min 2,2 UV-I 367 W/m 35,4 km/h (5 Bft)
14.08.2014 12:50 18,6 C 18,9 C 80 % 1009,7 hPa 0,0 l/m 0 min 0 min 2,2 UV-I 375 W/m 46,0 km/h (6 Bft)
14.08.2014 12:52 18,6 C 18,3 C 81 % 1009,6 hPa 0,0 l/m 2 min 0 min 2,4 UV-I 396 W/m 53,0 km/h (7 Bft)
14.08.2014 12:54 18,5 C 18,9 C 81 % 1009,6 hPa 0,0 l/m 2 min 0 min 2,7 UV-I 394 W/m 49,5 km/h (6 Bft)
14.08.2014 12:56 18,6 C 18,9 C 81 % 1009,7 hPa 0,0 l/m 2 min 0 min 3,0 UV-I 482 W/m 42,4 km/h (6 Bft)
14.08.2014 12:58 18,7 C 18,9 C 81 % 1009,6 hPa 0,0 l/m 2 min 0 min 2,7 UV-I 464 W/m 46,0 km/h (6 Bft)
14.08.2014 13:00 18,8 C 18,9 C 80 % 1009,6 hPa 0,0 l/m 2 min 0 min 3,1 UV-I 425 W/m 46,0 km/h (6 Bft)
14.08.2014 13:02 18,8 C 18,9 C 81 % 1009,5 hPa 0,0 l/m 2 min 0 min 3,2 UV-I 522 W/m 35,4 km/h (5 Bft)
14.08.2014 13:04 19,0 C 19,4 C 82 % 1009,6 hPa 0,0 l/m 2 min 0 min 2,9 UV-I 496 W/m 38,9 km/h (6 Bft)
14.08.2014 13:06 19,2 C 19,4 C 81 % 1009,7 hPa 0,0 l/m 2 min 0 min 2,9 UV-I 460 W/m 42,4 km/h (6 Bft)
14.08.2014 13:08 19,1 C 19,4 C 80 % 1009,5 hPa 0,0 l/m 2 min 0 min 3,1 UV-I 497 W/m 53,0 km/h (7 Bft)
14.08.2014 13:10 19,2 C 20,0 C 81 % 1009,6 hPa 0,0 l/m 2 min 0 min 3,5 UV-I 497 W/m 35,4 km/h (5 Bft)
14.08.2014 13:12 19,4 C 20,6 C 81 % 1009,5 hPa 0,0 l/m 2 min 0 min 3,5 UV-I 497 W/m 42,4 km/h (6 Bft)
14.08.2014 13:14 19,7 C 20,0 C 79 % 1009,5 hPa 0,0 l/m 2 min 0 min 2,8 UV-I 884 W/m 49,5 km/h (6 Bft)
14.08.2014 13:16 19,5 C 19,4 C 78 % 1009,5 hPa 0,0 l/m 0 min 0 min 2,0 UV-I 296 W/m 53,0 km/h (7 Bft)
14.08.2014 13:18 19,2 C 19,4 C 79 % 1009,5 hPa 0,0 l/m 0 min 0 min 2,4 UV-I 334 W/m 38,9 km/h (6 Bft)
14.08.2014 13:20 19,3 C 19,4 C 80 % 1009,5 hPa 0,0 l/m 2 min 2 min 3,0 UV-I 387 W/m 46,0 km/h (6 Bft)
14.08.2014 13:22 19,4 C 20,0 C 79 % 1009,4 hPa 0,0 l/m 2 min 0 min 2,9 UV-I 442 W/m 49,5 km/h (6 Bft)
14.08.2014 13:24 19,3 C 19,4 C 77 % 1009,4 hPa 0,0 l/m 2 min 0 min 2,6 UV-I 421 W/m 46,0 km/h (6 Bft)
14.08.2014 13:26 19,3 C 19,4 C 78 % 1009,5 hPa 0,0 l/m 2 min 0 min 2,5 UV-I 398 W/m 46,0 km/h (6 Bft)
14.08.2014 13:28 19,3 C 19,4 C 80 % 1009,4 hPa 0,0 l/m 0 min 0 min 2,4 UV-I 378 W/m 31,7 km/h (5 Bft)
14.08.2014 13:30 19,4 C 19,4 C 81 % 1009,4 hPa 0,0 l/m 0 min 0 min 2,2 UV-I 347 W/m 24,7 km/h (4 Bft)
14.08.2014 13:32 19,6 C 20,0 C 80 % 1009,4 hPa 0,0 l/m 2 min 0 min 2,8 UV-I 411 W/m 35,4 km/h (5 Bft)
14.08.2014 13:34 19,7 C 20,0 C 79 % 1009,4 hPa 0,0 l/m 0 min 0 min 2,4 UV-I 387 W/m 28,2 km/h (4 Bft)
14.08.2014 13:36 19,7 C 19,4 C 79 % 1009,5 hPa 0,0 l/m 0 min 0 min 2,2 UV-I 373 W/m 38,9 km/h (6 Bft)
14.08.2014 13:38 19,6 C 20,0 C 79 % 1009,5 hPa 0,0 l/m 2 min 0 min 3,0 UV-I 406 W/m 49,5 km/h (6 Bft)
14.08.2014 13:40 19,7 C 20,0 C 80 % 1009,5 hPa 0,0 l/m 2 min 0 min 3,3 UV-I 406 W/m 42,4 km/h (6 Bft)
14.08.2014 13:42 19,7 C 19,4 C 78 % 1009,5 hPa 0,0 l/m 2 min 0 min 3,3 UV-I 406 W/m 38,9 km/h (6 Bft)
14.08.2014 13:44 19,6 C 19,4 C 77 % 1009,6 hPa 0,0 l/m 2 min 0 min 2,8 UV-I 409 W/m 49,5 km/h (6 Bft)
14.08.2014 13:46 19,3 C 18,9 C 78 % 1009,5 hPa 0,0 l/m 0 min 0 min 2,5 UV-I 368 W/m 49,5 km/h (6 Bft)
14.08.2014 13:48 19,1 C 18,9 C 78 % 1009,5 hPa 0,0 l/m 0 min 0 min 2,6 UV-I 371 W/m 38,9 km/h (6 Bft)
14.08.2014 13:50 19,1 C 18,9 C 80 % 1009,5 hPa 0,0 l/m 2 min 0 min 2,7 UV-I 403 W/m 49,5 km/h (6 Bft)
14.08.2014 13:52 19,1 C 18,9 C 79 % 1009,5 hPa 0,0 l/m 2 min 0 min 2,8 UV-I 441 W/m 38,9 km/h (6 Bft)
14.08.2014 13:54 19,1 C 18,9 C 80 % 1009,5 hPa 0,0 l/m 2 min 0 min 2,5 UV-I 438 W/m 56,5 km/h (7 Bft)
14.08.2014 13:56 19,1 C 18,9 C 79 % 1009,5 hPa 0,0 l/m 2 min 0 min 2,7 UV-I 473 W/m 53,0 km/h (7 Bft)
14.08.2014 13:58 19,2 C 19,4 C 81 % 1009,5 hPa 0,0 l/m 2 min 0 min 2,6 UV-I 437 W/m 42,4 km/h (6 Bft)
14.08.2014 14:00 19,3 C 19,4 C 80 % 1009,5 hPa 0,0 l/m 2 min 0 min 2,8 UV-I 485 W/m 28,2 km/h (4 Bft)
14.08.2014 14:02 19,5 C 20,0 C 80 % 1009,5 hPa 0,0 l/m 2 min 0 min 3,0 UV-I 543 W/m 56,5 km/h (7 Bft)
14.08.2014 14:04 19,5 C 20,0 C 79 % 1009,5 hPa 0,0 l/m 2 min 0 min 3,0 UV-I 617 W/m 46,0 km/h (6 Bft)
14.08.2014 14:06 19,6 C 20,0 C 79 % 1009,4 hPa 0,0 l/m 2 min 0 min 2,6 UV-I 609 W/m 42,4 km/h (6 Bft)
14.08.2014 14:08 19,7 C 20,0 C 80 % 1009,4 hPa 0,0 l/m 2 min 0 min 2,3 UV-I 424 W/m 42,4 km/h (6 Bft)
14.08.2014 14:10 19,7 C 20,0 C 80 % 1009,4 hPa 0,0 l/m 2 min 0 min 3,4 UV-I 554 W/m 28,2 km/h (4 Bft)
14.08.2014 14:12 20,1 C 20,6 C 80 % 1009,4 hPa 0,0 l/m 2 min 0 min 3,3 UV-I 747 W/m 31,7 km/h (5 Bft)
14.08.2014 14:14 20,2 C 20,6 C 78 % 1009,4 hPa 0,0 l/m 2 min 0 min 3,0 UV-I 601 W/m 42,4 km/h (6 Bft)
14.08.2014 14:16 20,2 C 20,6 C 76 % 1009,4 hPa 0,0 l/m 2 min 0 min 3,6 UV-I 542 W/m 53,0 km/h (7 Bft)
14.08.2014 14:18 20,3 C 20,6 C 77 % 1009,3 hPa 0,0 l/m 2 min 0 min 4,1 UV-I 634 W/m 38,9 km/h (6 Bft)
14.08.2014 14:20 20,5 C 20,6 C 76 % 1009,3 hPa 0,0 l/m 2 min 0 min 4,2 UV-I 849 W/m 53,0 km/h (7 Bft)
14.08.2014 14:22 20,6 C 20,6 C 75 % 1009,3 hPa 0,0 l/m 2 min 0 min 4,2 UV-I 828 W/m 67,1 km/h (8 Bft)
14.08.2014 14:24 20,6 C 20,6 C 76 % 1009,2 hPa 0,0 l/m 2 min 0 min 3,7 UV-I 888 W/m 53,0 km/h (7 Bft)
14.08.2014 14:26 20,7 C 20,6 C 76 % 1009,2 hPa 0,0 l/m 2 min 0 min 4,1 UV-I 835 W/m 46,0 km/h (6 Bft)
14.08.2014 14:28 20,8 C 20,6 C 75 % 1009,2 hPa 0,0 l/m 2 min 0 min 4,2 UV-I 836 W/m 31,7 km/h (5 Bft)
14.08.2014 14:30 21,0 C 20,6 C 76 % 1009,2 hPa 0,0 l/m 2 min 0 min 3,4 UV-I 796 W/m 35,4 km/h (5 Bft)
14.08.2014 14:32 20,8 C 20,0 C 73 % 1009,2 hPa 0,0 l/m 0 min 0 min 2,5 UV-I 286 W/m 35,4 km/h (5 Bft)
14.08.2014 14:34 20,6 C 20,0 C 73 % 1009,2 hPa 0,0 l/m 2 min 0 min 3,3 UV-I 451 W/m 42,4 km/h (6 Bft)
14.08.2014 14:36 20,6 C 20,6 C 75 % 1009,2 hPa 0,0 l/m 2 min 0 min 3,1 UV-I 752 W/m 28,2 km/h (4 Bft)
14.08.2014 14:38 20,7 C 20,6 C 73 % 1009,2 hPa 0,0 l/m 2 min 0 min 3,0 UV-I 779 W/m 38,9 km/h (6 Bft)
14.08.2014 14:40 20,7 C 20,0 C 74 % 1009,2 hPa 0,0 l/m 0 min 0 min 1,8 UV-I 334 W/m 38,9 km/h (6 Bft)
14.08.2014 14:42 20,6 C 20,0 C 75 % 1009,4 hPa 0,0 l/m 0 min 0 min 1,1 UV-I 249 W/m 42,4 km/h (6 Bft)
14.08.2014 14:44 20,3 C 19,4 C 73 % 1009,6 hPa 0,0 l/m 0 min 0 min 0,2 UV-I 122 W/m 46,0 km/h (6 Bft)
14.08.2014 14:46 19,7 C 18,3 C 71 % 1009,7 hPa 0,0 l/m 0 min 0 min 0,0 UV-I 81 W/m 46,0 km/h (6 Bft)
14.08.2014 14:48 19,1 C 17,8 C 72 % 1009,7 hPa 0,0 l/m 0 min 0 min 0,0 UV-I 83 W/m 42,4 km/h (6 Bft)
14.08.2014 14:50 18,4 C 17,2 C 74 % 1009,8 hPa 0,0 l/m 0 min 0 min 0,0 UV-I 82 W/m 38,9 km/h (6 Bft)
14.08.2014 14:52 18,0 C 17,2 C 76 % 1009,8 hPa 0,0 l/m 0 min 0 min 0,0 UV-I 88 W/m 35,4 km/h (5 Bft)
14.08.2014 14:54 17,7 C 16,7 C 76 % 1009,8 hPa 0,0 l/m 0 min 0 min 0,0 UV-I 98 W/m 31,7 km/h (5 Bft)
14.08.2014 14:56 17,5 C 16,7 C 79 % 1009,9 hPa 0,0 l/m 0 min 0 min 0,0 UV-I 90 W/m 24,7 km/h (4 Bft)
14.08.2014 14:58 17,2 C 16,7 C 78 % 1009,9 hPa 0,0 l/m 0 min 0 min 0,0 UV-I 79 W/m 38,9 km/h (6 Bft)
14.08.2014 15:00 17,0 C 16,1 C 79 % 1009,9 hPa 0,0 l/m 0 min 0 min 0,0 UV-I 69 W/m 31,7 km/h (5 Bft)
14.08.2014 15:02 16,8 C 16,1 C 80 % 1009,9 hPa 0,0 l/m 0 min 0 min 0,0 UV-I 58 W/m 35,4 km/h (5 Bft)
14.08.2014 15:04 16,7 C 16,1 C 81 % 1009,9 hPa 0,0 l/m 0 min 0 min 0,0 UV-I 49 W/m 31,7 km/h (5 Bft)
14.08.2014 15:06 16,6 C 15,6 C 81 % 1009,9 hPa 0,0 l/m 0 min 2 min 0,0 UV-I 44 W/m 35,4 km/h (5 Bft)
14.08.2014 15:08 16,4 C 15,0 C 84 % 1010,0 hPa 0,0 l/m 0 min 2 min 0,0 UV-I 41 W/m 35,4 km/h (5 Bft)
14.08.2014 15:10 16,3 C 15,0 C 84 % 1010,1 hPa 0,0 l/m 0 min 2 min 0,0 UV-I 50 W/m 24,7 km/h (4 Bft)
14.08.2014 15:12 16,2 C 14,4 C 85 % 1010,0 hPa 0,0 l/m 0 min 2 min 0,0 UV-I 83 W/m 21,3 km/h (4 Bft)
14.08.2014 15:14 16,2 C 14,4 C 87 % 1010,0 hPa 0,2 l/m 0 min 2 min 0,0 UV-I 120 W/m 31,7 km/h (5 Bft)
14.08.2014 15:16 16,1 C 13,9 C 87 % 1010,0 hPa 0,0 l/m 0 min 2 min 0,0 UV-I 140 W/m 38,9 km/h (6 Bft)
14.08.2014 15:18 15,9 C 13,9 C 87 % 1009,8 hPa 0,0 l/m 0 min 2 min 0,0 UV-I 124 W/m 35,4 km/h (5 Bft)
14.08.2014 15:20 15,9 C 13,9 C 89 % 1009,9 hPa 0,0 l/m 0 min 0 min 0,0 UV-I 105 W/m 24,7 km/h (4 Bft)
14.08.2014 15:22 15,8 C 13,9 C 89 % 1009,9 hPa 0,0 l/m 0 min 0 min 0,0 UV-I 88 W/m 31,7 km/h (5 Bft)
14.08.2014 15:24 15,7 C 13,9 C 89 % 1009,9 hPa 0,0 l/m 0 min 2 min 0,0 UV-I 82 W/m 28,2 km/h (4 Bft)
14.08.2014 15:26 15,6 C 13,9 C 89 % 1009,9 hPa 0,0 l/m 0 min 2 min 0,0 UV-I 91 W/m 35,4 km/h (5 Bft)
14.08.2014 15:28 15,6 C 13,9 C 89 % 1009,9 hPa 0,0 l/m 0 min 2 min 0,0 UV-I 109 W/m 14,2 km/h (3 Bft)
14.08.2014 15:30 15,4 C 13,9 C 89 % 1009,9 hPa 0,0 l/m 0 min 2 min 0,0 UV-I 126 W/m 21,3 km/h (4 Bft)
14.08.2014 15:32 15,4 C 13,9 C 90 % 1010,0 hPa 0,0 l/m 0 min 2 min 0,0 UV-I 135 W/m 10,7 km/h (2 Bft)
14.08.2014 15:34 15,4 C 14,4 C 90 % 1009,9 hPa 0,0 l/m 0 min 2 min 0,0 UV-I 150 W/m 17,7 km/h (3 Bft)
14.08.2014 15:36 15,5 C 14,4 C 90 % 1009,9 hPa 0,0 l/m 0 min 2 min 0,6 UV-I 182 W/m 0,0 km/h (0 Bft)
14.08.2014 15:38 15,6 C 14,4 C 91 % 1009,9 hPa 0,0 l/m 0 min 0 min 0,8 UV-I 223 W/m 0,0 km/h (0 Bft)
14.08.2014 15:40 15,6 C 14,4 C 90 % 1009,8 hPa 0,0 l/m 0 min 0 min 1,1 UV-I 255 W/m 3,5 km/h (1 Bft)
14.08.2014 15:42 15,8 C 14,4 C 90 % 1009,9 hPa 0,0 l/m 0 min 0 min 1,3 UV-I 290 W/m 0,0 km/h (0 Bft)
14.08.2014 15:44 16,2 C 15,0 C 91 % 1009,9 hPa 0,0 l/m 0 min 0 min 1,8 UV-I 299 W/m 17,7 km/h (3 Bft)
14.08.2014 15:46 16,3 C 15,0 C 90 % 1009,9 hPa 0,0 l/m 0 min 0 min 1,7 UV-I 302 W/m 17,7 km/h (3 Bft)
14.08.2014 15:48 16,4 C 15,0 C 89 % 1009,9 hPa 0,0 l/m 0 min 0 min 1,3 UV-I 257 W/m 17,7 km/h (3 Bft)
14.08.2014 15:50 16,4 C 15,0 C 88 % 1010,0 hPa 0,0 l/m 0 min 0 min 1,1 UV-I 202 W/m 21,3 km/h (4 Bft)
14.08.2014 15:52 16,6 C 15,0 C 89 % 1010,0 hPa 0,0 l/m 0 min 0 min 0,9 UV-I 162 W/m 17,7 km/h (3 Bft)
14.08.2014 15:54 16,6 C 15,0 C 89 % 1010,0 hPa 0,0 l/m 0 min 0 min 0,5 UV-I 144 W/m 24,7 km/h (4 Bft)
14.08.2014 15:56 16,6 C 14,4 C 88 % 1010,0 hPa 0,0 l/m 0 min 0 min 0,0 UV-I 125 W/m 24,7 km/h (4 Bft)
14.08.2014 15:58 16,5 C 14,4 C 87 % 1010,1 hPa 0,0 l/m 0 min 0 min 0,0 UV-I 112 W/m 31,7 km/h (5 Bft)
14.08.2014 16:00 16,4 C 13,9 C 87 % 1010,1 hPa 0,0 l/m 0 min 0 min 0,0 UV-I 107 W/m 42,4 km/h (6 Bft)
14.08.2014 16:02 16,3 C 13,9 C 86 % 1010,1 hPa 0,0 l/m 0 min 0 min 0,0 UV-I 102 W/m 42,4 km/h (6 Bft)
14.08.2014 16:04 16,2 C 13,9 C 86 % 1010,2 hPa 0,0 l/m 0 min 0 min 0,0 UV-I 93 W/m 28,2 km/h (4 Bft)
14.08.2014 16:06 16,1 C 13,9 C 86 % 1010,2 hPa 0,0 l/m 0 min 0 min 0,0 UV-I 84 W/m 56,5 km/h (7 Bft)
14.08.2014 16:08 16,0 C 13,9 C 86 % 1010,2 hPa 0,0 l/m 0 min 2 min 0,0 UV-I 90 W/m 53,0 km/h (7 Bft)
14.08.2014 16:10 15,9 C 13,9 C 87 % 1010,3 hPa 0,0 l/m 0 min 2 min 0,0 UV-I 113 W/m 49,5 km/h (6 Bft)
14.08.2014 16:12 15,8 C 13,9 C 87 % 1010,3 hPa 0,0 l/m 0 min 0 min 0,0 UV-I 139 W/m 49,5 km/h (6 Bft)
14.08.2014 16:14 15,8 C 13,9 C 88 % 1010,3 hPa 0,0 l/m 0 min 2 min 0,4 UV-I 155 W/m 35,4 km/h (5 Bft)
14.08.2014 16:16 15,8 C 13,9 C 89 % 1010,3 hPa 0,0 l/m 0 min 2 min 0,5 UV-I 161 W/m 31,7 km/h (5 Bft)
14.08.2014 16:18 15,8 C 13,9 C 89 % 1010,2 hPa 0,0 l/m 0 min 2 min 0,5 UV-I 159 W/m 28,2 km/h (4 Bft)
14.08.2014 16:20 15,7 C 13,9 C 89 % 1010,3 hPa 0,0 l/m 0 min 2 min 0,5 UV-I 159 W/m 31,7 km/h (5 Bft)
14.08.2014 16:22 15,6 C 13,9 C 89 % 1010,2 hPa 0,2 l/m 0 min 2 min 0,5 UV-I 163 W/m 31,7 km/h (5 Bft)
14.08.2014 16:24 15,6 C 13,9 C 90 % 1010,2 hPa 0,0 l/m 0 min 2 min 0,5 UV-I 164 W/m 35,4 km/h (5 Bft)
14.08.2014 16:26 15,5 C 13,9 C 90 % 1010,2 hPa 0,0 l/m 0 min 2 min 0,3 UV-I 161 W/m 28,2 km/h (4 Bft)
14.08.2014 16:28 15,5 C 13,9 C 91 % 1010,1 hPa 0,0 l/m 0 min 2 min 0,0 UV-I 154 W/m 21,3 km/h (4 Bft)
14.08.2014 16:30 15,5 C 13,9 C 91 % 1010,1 hPa 0,0 l/m 0 min 2 min 0,0 UV-I 142 W/m 24,7 km/h (4 Bft)
14.08.2014 16:32 15,5 C 13,9 C 91 % 1010,1 hPa 0,0 l/m 0 min 0 min 0,0 UV-I 125 W/m 31,7 km/h (5 Bft)
14.08.2014 16:34 15,5 C 13,9 C 91 % 1010,1 hPa 0,0 l/m 0 min 0 min 0,0 UV-I 107 W/m 14,2 km/h (3 Bft)
14.08.2014 16:36 15,5 C 13,9 C 91 % 1010,1 hPa 0,0 l/m 0 min 0 min 0,0 UV-I 95 W/m 17,7 km/h (3 Bft)
14.08.2014 16:38 15,6 C 14,4 C 91 % 1010,1 hPa 0,0 l/m 0 min 0 min 0,0 UV-I 86 W/m 10,7 km/h (2 Bft)
14.08.2014 16:40 15,5 C 13,9 C 91 % 1010,2 hPa 0,0 l/m 0 min 0 min 0,0 UV-I 78 W/m 14,2 km/h (3 Bft)
14.08.2014 16:42 15,5 C 13,9 C 92 % 1010,1 hPa 0,0 l/m 0 min 0 min 0,0 UV-I 76 W/m 10,7 km/h (2 Bft)
14.08.2014 16:44 15,5 C 13,9 C 92 % 1010,2 hPa 0,0 l/m 0 min 0 min 0,0 UV-I 74 W/m 21,3 km/h (4 Bft)
14.08.2014 16:46 15,4 C 13,9 C 91 % 1010,3 hPa 0,0 l/m 0 min 0 min 0,0 UV-I 73 W/m 28,2 km/h (4 Bft)
14.08.2014 16:48 15,4 C 13,9 C 91 % 1010,2 hPa 0,0 l/m 0 min 2 min 0,0 UV-I 73 W/m 21,3 km/h (4 Bft)
14.08.2014 16:50 15,4 C 13,9 C 91 % 1010,2 hPa 0,0 l/m 0 min 0 min 0,0 UV-I 74 W/m 31,7 km/h (5 Bft)
14.08.2014 16:52 15,3 C 13,9 C 91 % 1010,1 hPa 0,0 l/m 0 min 0 min 0,0 UV-I 74 W/m 17,7 km/h (3 Bft)
14.08.2014 16:54 15,4 C 13,9 C 91 % 1010,2 hPa 0,0 l/m 0 min 0 min 0,0 UV-I 74 W/m 21,3 km/h (4 Bft)
14.08.2014 16:56 15,4 C 13,9 C 91 % 1010,2 hPa 0,0 l/m 0 min 2 min 0,0 UV-I 74 W/m 21,3 km/h (4 Bft)
14.08.2014 16:58 15,3 C 13,9 C 91 % 1010,1 hPa 0,0 l/m 0 min 0 min 0,0 UV-I 74 W/m 24,7 km/h (4 Bft)
14.08.2014 17:00 15,3 C 13,9 C 91 % 1010,1 hPa 0,0 l/m 0 min 2 min 0,0 UV-I 74 W/m 17,7 km/h (3 Bft)
14.08.2014 17:02 15,3 C 13,9 C 91 % 1010,1 hPa 0,0 l/m 0 min 2 min 0,0 UV-I 75 W/m 17,7 km/h (3 Bft)
14.08.2014 17:04 15,3 C 13,9 C 91 % 1010,1 hPa 0,0 l/m 0 min 2 min 0,0 UV-I 78 W/m 21,3 km/h (4 Bft)
14.08.2014 17:06 15,3 C 13,9 C 91 % 1010,1 hPa 0,0 l/m 0 min 0 min 0,0 UV-I 84 W/m 21,3 km/h (4 Bft)
14.08.2014 17:08 15,3 C 13,9 C 91 % 1010,1 hPa 0,0 l/m 0 min 0 min 0,0 UV-I 88 W/m 10,7 km/h (2 Bft)
14.08.2014 17:10 15,3 C 13,9 C 92 % 1010,1 hPa 0,0 l/m 0 min 0 min 0,0 UV-I 90 W/m 24,7 km/h (4 Bft)
14.08.2014 17:12 15,3 C 13,9 C 91 % 1010,1 hPa 0,0 l/m 0 min 0 min 0,0 UV-I 88 W/m 24,7 km/h (4 Bft)
14.08.2014 17:14 15,3 C 13,9 C 91 % 1010,0 hPa 0,0 l/m 0 min 0 min 0,0 UV-I 86 W/m 21,3 km/h (4 Bft)
14.08.2014 17:16 15,4 C 13,9 C 91 % 1010,0 hPa 0,0 l/m 0 min 0 min 0,0 UV-I 86 W/m 7,1 km/h (2 Bft)
14.08.2014 17:18 15,4 C 13,9 C 91 % 1010,0 hPa 0,0 l/m 0 min 0 min 0,0 UV-I 84 W/m 14,2 km/h (3 Bft)
14.08.2014 17:20 15,3 C 13,9 C 91 % 1010,1 hPa 0,0 l/m 0 min 0 min 0,0 UV-I 84 W/m 17,7 km/h (3 Bft)
14.08.2014 17:22 15,3 C 13,9 C 91 % 1010,1 hPa 0,0 l/m 0 min 0 min 0,0 UV-I 85 W/m 17,7 km/h (3 Bft)
14.08.2014 17:24 15,4 C 13,9 C 91 % 1010,1 hPa 0,0 l/m 0 min 0 min 0,0 UV-I 87 W/m 21,3 km/h (4 Bft)
14.08.2014 17:26 15,4 C 13,9 C 91 % 1010,1 hPa 0,0 l/m 0 min 0 min 0,0 UV-I 89 W/m 21,3 km/h (4 Bft)
14.08.2014 17:28 15,4 C 14,4 C 91 % 1010,1 hPa 0,0 l/m 0 min 0 min 0,0 UV-I 91 W/m 24,7 km/h (4 Bft)
14.08.2014 17:30 15,4 C 14,4 C 91 % 1010,1 hPa 0,0 l/m 0 min 0 min 0,0 UV-I 94 W/m 17,7 km/h (3 Bft)
14.08.2014 17:32 15,4 C 14,4 C 91 % 1010,1 hPa 0,0 l/m 0 min 0 min 0,0 UV-I 97 W/m 24,7 km/h (4 Bft)
14.08.2014 17:34 15,4 C 14,4 C 90 % 1010,1 hPa 0,0 l/m 0 min 0 min 0,0 UV-I 98 W/m 14,2 km/h (3 Bft)
14.08.2014 17:36 15,4 C 14,4 C 90 % 1010,1 hPa 0,0 l/m 0 min 0 min 0,0 UV-I 101 W/m 14,2 km/h (3 Bft)
14.08.2014 17:38 15,6 C 14,4 C 91 % 1010,2 hPa 0,0 l/m 0 min 0 min 0,0 UV-I 105 W/m 14,2 km/h (3 Bft)
14.08.2014 17:40 15,6 C 14,4 C 91 % 1010,2 hPa 0,0 l/m 0 min 0 min 0,0 UV-I 107 W/m 21,3 km/h (4 Bft)
14.08.2014 17:42 15,6 C 14,4 C 91 % 1010,1 hPa 0,0 l/m 0 min 0 min 0,0 UV-I 108 W/m 21,3 km/h (4 Bft)
14.08.2014 17:44 15,6 C 14,4 C 90 % 1010,1 hPa 0,0 l/m 0 min 0 min 0,0 UV-I 111 W/m 24,7 km/h (4 Bft)
14.08.2014 17:46 15,6 C 15,0 C 90 % 1010,2 hPa 0,0 l/m 0 min 0 min 0,0 UV-I 112 W/m 17,7 km/h (3 Bft)
14.08.2014 17:48 15,7 C 15,0 C 90 % 1010,2 hPa 0,0 l/m 0 min 0 min 0,0 UV-I 113 W/m 24,7 km/h (4 Bft)
14.08.2014 17:50 15,7 C 15,0 C 90 % 1010,2 hPa 0,0 l/m 0 min 0 min 0,0 UV-I 116 W/m 21,3 km/h (4 Bft)
14.08.2014 17:52 15,7 C 15,0 C 89 % 1010,2 hPa 0,0 l/m 0 min 0 min 0,0 UV-I 120 W/m 21,3 km/h (4 Bft)
14.08.2014 17:54 15,7 C 15,0 C 89 % 1010,2 hPa 0,0 l/m 0 min 0 min 0,0 UV-I 128 W/m 21,3 km/h (4 Bft)
14.08.2014 17:56 15,7 C 15,0 C 89 % 1010,3 hPa 0,0 l/m 0 min 0 min 0,0 UV-I 138 W/m 21,3 km/h (4 Bft)
14.08.2014 17:58 15,8 C 15,0 C 90 % 1010,2 hPa 0,0 l/m 0 min 0 min 0,0 UV-I 146 W/m 21,3 km/h (4 Bft)
14.08.2014 18:00 15,7 C 15,0 C 89 % 1010,2 hPa 0,0 l/m 0 min 0 min 0,0 UV-I 149 W/m 28,2 km/h (4 Bft)
14.08.2014 18:02 15,7 C 15,0 C 89 % 1010,2 hPa 0,0 l/m 0 min 0 min 0,0 UV-I 151 W/m 21,3 km/h (4 Bft)
14.08.2014 18:06 15,8 C 15,0 C 88 % 1010,2 hPa 0,0 l/m 0 min 0 min 0,0 UV-I 155 W/m 38,9 km/h (6 Bft)
14.08.2014 18:08 15,8 C 15,0 C 88 % 1010,2 hPa 0,0 l/m 0 min 0 min 0,0 UV-I 161 W/m 17,7 km/h (3 Bft)
14.08.2014 18:10 15,9 C 15,6 C 88 % 1010,2 hPa 0,0 l/m 0 min 0 min 0,0 UV-I 165 W/m 21,3 km/h (4 Bft)
14.08.2014 18:12 15,9 C 15,6 C 88 % 1010,2 hPa 0,0 l/m 0 min 0 min 0,0 UV-I 174 W/m 17,7 km/h (3 Bft)
14.08.2014 18:14 16,1 C 15,6 C 88 % 1010,1 hPa 0,0 l/m 0 min 0 min 0,0 UV-I 180 W/m 17,7 km/h (3 Bft)
14.08.2014 18:16 16,2 C 15,6 C 89 % 1010,2 hPa 0,0 l/m 0 min 0 min 0,0 UV-I 173 W/m 7,1 km/h (2 Bft)
14.08.2014 18:18 16,3 C 15,6 C 88 % 1010,2 hPa 0,0 l/m 0 min 0 min 0,0 UV-I 164 W/m 14,2 km/h (3 Bft)
14.08.2014 18:20 16,3 C 15,6 C 88 % 1010,2 hPa 0,0 l/m 0 min 0 min 0,0 UV-I 159 W/m 24,7 km/h (4 Bft)
14.08.2014 18:22 16,3 C 15,6 C 88 % 1010,2 hPa 0,0 l/m 0 min 0 min 0,0 UV-I 158 W/m 17,7 km/h (3 Bft)
14.08.2014 18:24 16,4 C 15,6 C 87 % 1010,2 hPa 0,0 l/m 0 min 0 min 0,0 UV-I 146 W/m 14,2 km/h (3 Bft)
14.08.2014 18:26 16,4 C 15,6 C 87 % 1010,1 hPa 0,0 l/m 0 min 0 min 0,0 UV-I 137 W/m 24,7 km/h (4 Bft)
14.08.2014 18:28 16,4 C 15,6 C 87 % 1010,2 hPa 0,0 l/m 0 min 0 min 0,0 UV-I 132 W/m 10,7 km/h (2 Bft)
14.08.2014 18:30 16,4 C 15,6 C 87 % 1010,3 hPa 0,0 l/m 0 min 0 min 0,0 UV-I 130 W/m 17,7 km/h (3 Bft)
14.08.2014 18:32 16,4 C 15,6 C 87 % 1010,3 hPa 0,0 l/m 0 min 0 min 0,0 UV-I 131 W/m 31,7 km/h (5 Bft)
14.08.2014 18:34 16,4 C 15,6 C 86 % 1010,2 hPa 0,0 l/m 0 min 0 min 0,0 UV-I 140 W/m 21,3 km/h (4 Bft)
14.08.2014 18:36 16,4 C 15,6 C 86 % 1010,2 hPa 0,0 l/m 0 min 0 min 0,0 UV-I 165 W/m 24,7 km/h (4 Bft)
14.08.2014 18:38 16,4 C 15,6 C 87 % 1010,2 hPa 0,0 l/m 2 min 0 min 0,0 UV-I 204 W/m 28,2 km/h (4 Bft)
14.08.2014 18:40 16,5 C 15,6 C 86 % 1010,2 hPa 0,0 l/m 2 min 0 min 0,0 UV-I 258 W/m 28,2 km/h (4 Bft)
14.08.2014 18:42 16,7 C 15,6 C 87 % 1010,2 hPa 0,0 l/m 2 min 0 min 0,0 UV-I 308 W/m 17,7 km/h (3 Bft)
14.08.2014 18:44 16,8 C 15,6 C 87 % 1010,1 hPa 0,0 l/m 2 min 0 min 0,0 UV-I 299 W/m 28,2 km/h (4 Bft)
14.08.2014 18:46 16,9 C 16,1 C 86 % 1010,1 hPa 0,0 l/m 2 min 0 min 0,0 UV-I 314 W/m 24,7 km/h (4 Bft)
14.08.2014 18:48 17,0 C 16,1 C 86 % 1010,0 hPa 0,0 l/m 2 min 0 min 0,0 UV-I 262 W/m 31,7 km/h (5 Bft)
14.08.2014 18:50 17,1 C 16,1 C 86 % 1010,1 hPa 0,0 l/m 2 min 0 min 0,0 UV-I 168 W/m 17,7 km/h (3 Bft)
14.08.2014 18:52 17,1 C 16,1 C 86 % 1010,0 hPa 0,0 l/m 2 min 0 min 0,0 UV-I 162 W/m 17,7 km/h (3 Bft)
14.08.2014 18:54 17,1 C 16,7 C 86 % 1010,0 hPa 0,0 l/m 2 min 0 min 0,0 UV-I 160 W/m 17,7 km/h (3 Bft)
14.08.2014 18:56 17,1 C 16,7 C 85 % 1010,0 hPa 0,0 l/m 2 min 0 min 0,0 UV-I 154 W/m 24,7 km/h (4 Bft)
14.08.2014 18:58 17,0 C 16,1 C 85 % 1010,0 hPa 0,0 l/m 0 min 0 min 0,0 UV-I 144 W/m 17,7 km/h (3 Bft)
14.08.2014 19:00 16,9 C 16,1 C 85 % 1010,0 hPa 0,0 l/m 0 min 0 min 0,0 UV-I 142 W/m 17,7 km/h (3 Bft)
14.08.2014 19:02 16,9 C 16,1 C 85 % 1010,1 hPa 0,0 l/m 2 min 0 min 0,0 UV-I 141 W/m 14,2 km/h (3 Bft)
14.08.2014 19:04 16,9 C 16,1 C 85 % 1010,1 hPa 0,0 l/m 2 min 0 min 0,0 UV-I 138 W/m 17,7 km/h (3 Bft)
14.08.2014 19:06 16,8 C 16,1 C 84 % 1010,1 hPa 0,0 l/m 0 min 0 min 0,0 UV-I 133 W/m 24,7 km/h (4 Bft)
14.08.2014 19:08 16,8 C 16,1 C 85 % 1010,0 hPa 0,0 l/m 0 min 0 min 0,0 UV-I 126 W/m 21,3 km/h (4 Bft)
14.08.2014 19:10 16,8 C 16,1 C 85 % 1010,0 hPa 0,0 l/m 0 min 0 min 0,0 UV-I 116 W/m 17,7 km/h (3 Bft)
14.08.2014 19:12 16,8 C 16,1 C 85 % 1010,1 hPa 0,0 l/m 0 min 0 min 0,0 UV-I 104 W/m 17,7 km/h (3 Bft)
14.08.2014 19:14 16,8 C 16,1 C 85 % 1010,0 hPa 0,0 l/m 0 min 0 min 0,0 UV-I 98 W/m 14,2 km/h (3 Bft)
14.08.2014 19:16 16,8 C 16,1 C 85 % 1010,1 hPa 0,0 l/m 0 min 0 min 0,0 UV-I 92 W/m 10,7 km/h (2 Bft)
14.08.2014 19:18 16,8 C 16,1 C 86 % 1010,0 hPa 0,0 l/m 0 min 0 min 0,0 UV-I 86 W/m 0,0 km/h (0 Bft)
14.08.2014 19:20 16,7 C 16,1 C 86 % 1010,1 hPa 0,0 l/m 0 min 0 min 0,0 UV-I 83 W/m 3,5 km/h (1 Bft)
14.08.2014 19:22 16,8 C 16,1 C 86 % 1010,1 hPa 0,0 l/m 0 min 0 min 0,0 UV-I 80 W/m 10,7 km/h (2 Bft)
14.08.2014 19:24 16,7 C 16,1 C 86 % 1010,1 hPa 0,0 l/m 0 min 0 min 0,0 UV-I 77 W/m 14,2 km/h (3 Bft)
14.08.2014 19:26 16,7 C 16,1 C 86 % 1010,1 hPa 0,0 l/m 0 min 0 min 0,0 UV-I 77 W/m 14,2 km/h (3 Bft)
14.08.2014 19:28 16,7 C 16,1 C 86 % 1010,1 hPa 0,0 l/m 0 min 0 min 0,0 UV-I 79 W/m 10,7 km/h (2 Bft)
14.08.2014 19:30 16,7 C 16,1 C 87 % 1010,1 hPa 0,0 l/m 0 min 0 min 0,0 UV-I 81 W/m 10,7 km/h (2 Bft)
14.08.2014 19:32 16,7 C 16,1 C 87 % 1010,1 hPa 0,0 l/m 0 min 0 min 0,0 UV-I 77 W/m 10,7 km/h (2 Bft)
14.08.2014 19:34 16,7 C 16,1 C 87 % 1010,1 hPa 0,0 l/m 0 min 0 min 0,0 UV-I 70 W/m 10,7 km/h (2 Bft)
14.08.2014 19:36 16,7 C 15,6 C 87 % 1010,2 hPa 0,0 l/m 0 min 0 min 0,0 UV-I 63 W/m 24,7 km/h (4 Bft)
14.08.2014 19:38 16,6 C 15,6 C 87 % 1010,2 hPa 0,0 l/m 0 min 0 min 0,0 UV-I 56 W/m 14,2 km/h (3 Bft)
14.08.2014 19:40 16,6 C 15,6 C 87 % 1010,2 hPa 0,0 l/m 0 min 0 min 0,0 UV-I 48 W/m 10,7 km/h (2 Bft)
14.08.2014 19:42 16,6 C 15,6 C 87 % 1010,2 hPa 0,0 l/m 0 min 0 min 0,0 UV-I 45 W/m 17,7 km/h (3 Bft)
14.08.2014 19:44 16,5 C 15,6 C 87 % 1010,2 hPa 0,0 l/m 0 min 0 min 0,0 UV-I 43 W/m 14,2 km/h (3 Bft)
14.08.2014 19:46 16,5 C 15,6 C 87 % 1010,2 hPa 0,0 l/m 0 min 0 min 0,0 UV-I 42 W/m 14,2 km/h (3 Bft)
14.08.2014 19:48 16,5 C 15,6 C 87 % 1010,2 hPa 0,0 l/m 0 min 0 min 0,0 UV-I 41 W/m 0,0 km/h (0 Bft)
14.08.2014 19:50 16,4 C 15,6 C 88 % 1010,2 hPa 0,0 l/m 0 min 0 min 0,0 UV-I 40 W/m 14,2 km/h (3 Bft)
14.08.2014 19:52 16,4 C 15,6 C 88 % 1010,2 hPa 0,0 l/m 0 min 0 min 0,0 UV-I 38 W/m 14,2 km/h (3 Bft)
14.08.2014 19:54 16,4 C 15,6 C 88 % 1010,2 hPa 0,0 l/m 0 min 0 min 0,0 UV-I 36 W/m 17,7 km/h (3 Bft)
14.08.2014 19:56 16,4 C 15,6 C 88 % 1010,2 hPa 0,0 l/m 0 min 0 min 0,0 UV-I 35 W/m 7,1 km/h (2 Bft)
14.08.2014 19:58 16,4 C 15,6 C 88 % 1010,2 hPa 0,0 l/m 0 min 0 min 0,0 UV-I 33 W/m 0,0 km/h (0 Bft)
14.08.2014 20:00 16,4 C 15,0 C 88 % 1010,3 hPa 0,0 l/m 0 min 0 min 0,0 UV-I 32 W/m 0,0 km/h (0 Bft)
14.08.2014 20:02 16,3 C 15,0 C 88 % 1010,3 hPa 0,0 l/m 0 min 0 min 0,0 UV-I 27 W/m 21,3 km/h (4 Bft)
14.08.2014 20:04 16,3 C 15,0 C 88 % 1010,3 hPa 0,0 l/m 0 min 0 min 0,0 UV-I 22 W/m 21,3 km/h (4 Bft)
14.08.2014 20:06 16,3 C 15,0 C 88 % 1010,3 hPa 0,0 l/m 0 min 0 min 0,0 UV-I 18 W/m 17,7 km/h (3 Bft)
14.08.2014 20:08 16,3 C 15,0 C 88 % 1010,3 hPa 0,0 l/m 0 min 0 min 0,0 UV-I 16 W/m 17,7 km/h (3 Bft)
14.08.2014 20:10 16,2 C 15,0 C 88 % 1010,3 hPa 0,0 l/m 0 min 0 min 0,0 UV-I 14 W/m 17,7 km/h (3 Bft)
14.08.2014 20:12 16,2 C 15,0 C 87 % 1010,3 hPa 0,0 l/m 0 min 0 min 0,0 UV-I 13 W/m 14,2 km/h (3 Bft)
14.08.2014 20:14 16,2 C 15,0 C 87 % 1010,3 hPa 0,0 l/m 0 min 0 min 0,0 UV-I 12 W/m 14,2 km/h (3 Bft)
14.08.2014 20:16 16,2 C 15,0 C 87 % 1010,3 hPa 0,0 l/m 0 min 0 min 0,0 UV-I 11 W/m 14,2 km/h (3 Bft)
14.08.2014 20:18 16,1 C 15,0 C 86 % 1010,4 hPa 0,0 l/m 0 min 0 min 0,0 UV-I 11 W/m 3,5 km/h (1 Bft)
14.08.2014 20:20 16,1 C 15,0 C 86 % 1010,4 hPa 0,0 l/m 0 min 0 min 0,0 UV-I 11 W/m 14,2 km/h (3 Bft)
14.08.2014 20:22 16,1 C 15,0 C 86 % 1010,4 hPa 0,0 l/m 0 min 0 min 0,0 UV-I 10 W/m 14,2 km/h (3 Bft)
14.08.2014 20:24 16,1 C 15,0 C 87 % 1010,3 hPa 0,0 l/m 0 min 0 min 0,0 UV-I 9 W/m 3,5 km/h (1 Bft)
14.08.2014 20:26 16,1 C 15,0 C 87 % 1010,4 hPa 0,0 l/m 0 min 0 min 0,0 UV-I 9 W/m 14,2 km/h (3 Bft)
14.08.2014 20:28 16,1 C 15,0 C 86 % 1010,3 hPa 0,0 l/m 0 min 0 min 0,0 UV-I 9 W/m 0,0 km/h (0 Bft)
14.08.2014 20:30 16,1 C 15,0 C 86 % 1010,4 hPa 0,0 l/m 0 min 0 min 0,0 UV-I 7 W/m 10,7 km/h (2 Bft)
14.08.2014 20:32 16,0 C 15,0 C 87 % 1010,4 hPa 0,0 l/m 0 min 0 min 0,0 UV-I 7 W/m 7,1 km/h (2 Bft)
14.08.2014 20:34 16,0 C 15,0 C 87 % 1010,4 hPa 0,0 l/m 0 min 0 min 0,0 UV-I 7 W/m 10,7 km/h (2 Bft)
14.08.2014 20:36 15,9 C 14,4 C 87 % 1010,4 hPa 0,0 l/m 0 min 0 min 0,0 UV-I 6 W/m 7,1 km/h (2 Bft)
14.08.2014 20:38 15,9 C 14,4 C 87 % 1010,4 hPa 0,0 l/m 0 min 0 min 0,0 UV-I 5 W/m 0,0 km/h (0 Bft)
14.08.2014 20:40 15,9 C 14,4 C 87 % 1010,4 hPa 0,0 l/m 0 min 0 min 0,0 UV-I 5 W/m 3,5 km/h (1 Bft)
14.08.2014 20:42 15,9 C 14,4 C 87 % 1010,4 hPa 0,0 l/m 0 min 0 min 0,0 UV-I 5 W/m 0,0 km/h (0 Bft)
14.08.2014 20:44 15,8 C 14,4 C 87 % 1010,4 hPa 0,0 l/m 0 min 0 min 0,0 UV-I 5 W/m 0,0 km/h (0 Bft)
14.08.2014 20:46 15,8 C 14,4 C 88 % 1010,4 hPa 0,0 l/m 0 min 0 min 0,0 UV-I 5 W/m 0,0 km/h (0 Bft)
14.08.2014 20:48 15,8 C 14,4 C 88 % 1010,4 hPa 0,0 l/m 0 min 0 min 0,0 UV-I 5 W/m 3,5 km/h (1 Bft)
14.08.2014 20:50 15,7 C 14,4 C 88 % 1010,5 hPa 0,0 l/m 0 min 0 min 0,0 UV-I 5 W/m 0,0 km/h (0 Bft)
14.08.2014 20:52 15,7 C 14,4 C 88 % 1010,4 hPa 0,0 l/m 0 min 0 min 0,0 UV-I 2 W/m 0,0 km/h (0 Bft)
14.08.2014 20:54 15,7 C 14,4 C 88 % 1010,5 hPa 0,0 l/m 0 min 0 min 0,0 UV-I 0 W/m 0,0 km/h (0 Bft)
14.08.2014 20:56 15,7 C 13,9 C 88 % 1010,5 hPa 0,0 l/m 0 min 0 min 0,0 UV-I 0 W/m 0,0 km/h (0 Bft)
14.08.2014 20:58 15,7 C 13,9 C 88 % 1010,5 hPa 0,0 l/m 0 min 0 min 0,0 UV-I 0 W/m 0,0 km/h (0 Bft)
14.08.2014 21:00 15,7 C 13,9 C 88 % 1010,5 hPa 0,0 l/m 0 min 0 min 0,0 UV-I 0 W/m 0,0 km/h (0 Bft)
14.08.2014 21:02 15,6 C 13,9 C 88 % 1010,5 hPa 0,0 l/m 0 min 0 min 0,0 UV-I 0 W/m 0,0 km/h (0 Bft)
14.08.2014 21:04 15,6 C 13,9 C 88 % 1010,4 hPa 0,0 l/m 0 min 0 min 0,0 UV-I 0 W/m 3,5 km/h (1 Bft)
14.08.2014 21:06 15,6 C 13,9 C 88 % 1010,4 hPa 0,0 l/m 0 min 0 min 0,0 UV-I 0 W/m 0,0 km/h (0 Bft)
14.08.2014 21:08 15,6 C 13,9 C 89 % 1010,4 hPa 0,0 l/m 0 min 0 min 0,0 UV-I 0 W/m 0,0 km/h (0 Bft)
14.08.2014 21:10 15,6 C 13,9 C 89 % 1010,5 hPa 0,0 l/m 0 min 0 min 0,0 UV-I 0 W/m 0,0 km/h (0 Bft)
14.08.2014 21:12 15,6 C 13,9 C 89 % 1010,5 hPa 0,0 l/m 0 min 0 min 0,0 UV-I 0 W/m 0,0 km/h (0 Bft)
14.08.2014 21:14 15,6 C 13,9 C 89 % 1010,5 hPa 0,0 l/m 0 min 0 min 0,0 UV-I 0 W/m 14,2 km/h (3 Bft)
14.08.2014 21:16 15,6 C 14,4 C 89 % 1010,5 hPa 0,0 l/m 0 min 0 min 0,0 UV-I 0 W/m 10,7 km/h (2 Bft)
14.08.2014 21:18 15,6 C 14,4 C 89 % 1010,4 hPa 0,0 l/m 0 min 0 min 0,0 UV-I 0 W/m 0,0 km/h (0 Bft)
14.08.2014 21:20 15,6 C 14,4 C 89 % 1010,5 hPa 0,0 l/m 0 min 0 min 0,0 UV-I 0 W/m 10,7 km/h (2 Bft)
14.08.2014 21:22 15,6 C 14,4 C 89 % 1010,5 hPa 0,0 l/m 0 min 0 min 0,0 UV-I 0 W/m 10,7 km/h (2 Bft)
14.08.2014 21:24 15,6 C 14,4 C 89 % 1010,5 hPa 0,0 l/m 0 min 0 min 0,0 UV-I 0 W/m 10,7 km/h (2 Bft)
14.08.2014 21:26 15,5 C 13,9 C 89 % 1010,5 hPa 0,0 l/m 0 min 0 min 0,0 UV-I 0 W/m 14,2 km/h (3 Bft)
14.08.2014 21:28 15,5 C 14,4 C 90 % 1010,5 hPa 0,0 l/m 0 min 2 min 0,0 UV-I 0 W/m 10,7 km/h (2 Bft)
14.08.2014 21:30 15,4 C 13,9 C 90 % 1010,5 hPa 0,0 l/m 0 min 0 min 0,0 UV-I 0 W/m 10,7 km/h (2 Bft)
14.08.2014 21:32 15,4 C 13,9 C 90 % 1010,5 hPa 0,0 l/m 0 min 0 min 0,0 UV-I 0 W/m 3,5 km/h (1 Bft)
14.08.2014 21:34 15,4 C 13,9 C 90 % 1010,5 hPa 0,0 l/m 0 min 0 min 0,0 UV-I 0 W/m 0,0 km/h (0 Bft)
14.08.2014 21:36 15,3 C 13,9 C 90 % 1010,6 hPa 0,0 l/m 0 min 0 min 0,0 UV-I 0 W/m 0,0 km/h (0 Bft)
14.08.2014 21:38 15,3 C 13,9 C 90 % 1010,5 hPa 0,0 l/m 0 min 0 min 0,0 UV-I 0 W/m 0,0 km/h (0 Bft)
14.08.2014 21:40 15,3 C 13,9 C 90 % 1010,5 hPa 0,0 l/m 0 min 0 min 0,0 UV-I 0 W/m 3,5 km/h (1 Bft)
14.08.2014 21:42 15,3 C 13,9 C 90 % 1010,6 hPa 0,0 l/m 0 min 0 min 0,0 UV-I 0 W/m 0,0 km/h (0 Bft)
14.08.2014 21:44 15,2 C 13,9 C 90 % 1010,6 hPa 0,0 l/m 0 min 0 min 0,0 UV-I 0 W/m 0,0 km/h (0 Bft)
14.08.2014 21:46 15,2 C 13,9 C 91 % 1010,5 hPa 0,0 l/m 0 min 0 min 0,0 UV-I 0 W/m 0,0 km/h (0 Bft)
14.08.2014 21:48 15,2 C 13,9 C 91 % 1010,6 hPa 0,0 l/m 0 min 0 min 0,0 UV-I 0 W/m 10,7 km/h (2 Bft)
14.08.2014 21:50 15,2 C 13,9 C 91 % 1010,5 hPa 0,0 l/m 0 min 0 min 0,0 UV-I 0 W/m 21,3 km/h (4 Bft)
14.08.2014 21:52 15,2 C 13,9 C 91 % 1010,5 hPa 0,0 l/m 0 min 0 min 0,0 UV-I 0 W/m 14,2 km/h (3 Bft)
14.08.2014 21:54 15,1 C 13,9 C 91 % 1010,5 hPa 0,0 l/m 0 min 0 min 0,0 UV-I 0 W/m 14,2 km/h (3 Bft)
14.08.2014 21:56 15,1 C 13,9 C 91 % 1010,5 hPa 0,0 l/m 0 min 0 min 0,0 UV-I 0 W/m 14,2 km/h (3 Bft)
14.08.2014 21:58 15,1 C 13,9 C 91 % 1010,5 hPa 0,0 l/m 0 min 0 min 0,0 UV-I 0 W/m 14,2 km/h (3 Bft)
14.08.2014 22:00 15,1 C 13,9 C 91 % 1010,5 hPa 0,0 l/m 0 min 0 min 0,0 UV-I 0 W/m 17,7 km/h (3 Bft)
14.08.2014 22:02 15,1 C 13,9 C 91 % 1010,5 hPa 0,0 l/m 0 min 0 min 0,0 UV-I 0 W/m 14,2 km/h (3 Bft)
14.08.2014 22:04 15,2 C 13,9 C 91 % 1010,5 hPa 0,0 l/m 0 min 0 min 0,0 UV-I 0 W/m 17,7 km/h (3 Bft)
14.08.2014 22:06 15,2 C 13,9 C 91 % 1010,5 hPa 0,0 l/m 0 min 0 min 0,0 UV-I 0 W/m 7,1 km/h (2 Bft)
14.08.2014 22:08 15,2 C 13,9 C 91 % 1010,5 hPa 0,0 l/m 0 min 0 min 0,0 UV-I 0 W/m 10,7 km/h (2 Bft)
14.08.2014 22:10 15,2 C 13,9 C 91 % 1010,5 hPa 0,0 l/m 0 min 0 min 0,0 UV-I 0 W/m 7,1 km/h (2 Bft)
14.08.2014 22:12 15,2 C 13,9 C 91 % 1010,5 hPa 0,0 l/m 0 min 0 min 0,0 UV-I 0 W/m 14,2 km/h (3 Bft)
14.08.2014 22:14 15,2 C 13,9 C 91 % 1010,4 hPa 0,0 l/m 0 min 0 min 0,0 UV-I 0 W/m 0,0 km/h (0 Bft)
14.08.2014 22:16 15,2 C 13,9 C 91 % 1010,5 hPa 0,0 l/m 0 min 0 min 0,0 UV-I 0 W/m 3,5 km/h (1 Bft)
14.08.2014 22:18 15,2 C 13,9 C 91 % 1010,5 hPa 0,0 l/m 0 min 0 min 0,0 UV-I 0 W/m 0,0 km/h (0 Bft)
14.08.2014 22:20 15,1 C 13,9 C 91 % 1010,5 hPa 0,0 l/m 0 min 0 min 0,0 UV-I 0 W/m 3,5 km/h (1 Bft)
14.08.2014 22:22 15,1 C 13,9 C 91 % 1010,5 hPa 0,0 l/m 0 min 0 min 0,0 UV-I 0 W/m 10,7 km/h (2 Bft)
14.08.2014 22:24 15,1 C 13,9 C 91 % 1010,5 hPa 0,0 l/m 0 min 0 min 0,0 UV-I 0 W/m 14,2 km/h (3 Bft)
14.08.2014 22:26 15,1 C 13,9 C 91 % 1010,5 hPa 0,0 l/m 0 min 0 min 0,0 UV-I 0 W/m 7,1 km/h (2 Bft)
14.08.2014 22:28 15,1 C 13,9 C 91 % 1010,4 hPa 0,0 l/m 0 min 0 min 0,0 UV-I 0 W/m 0,0 km/h (0 Bft)
14.08.2014 22:30 15,1 C 13,9 C 91 % 1010,4 hPa 0,0 l/m 0 min 0 min 0,0 UV-I 0 W/m 14,2 km/h (3 Bft)
14.08.2014 22:32 15,1 C 13,9 C 91 % 1010,4 hPa 0,0 l/m 0 min 0 min 0,0 UV-I 0 W/m 10,7 km/h (2 Bft)
14.08.2014 22:34 15,1 C 13,9 C 91 % 1010,4 hPa 0,0 l/m 0 min 0 min 0,0 UV-I 0 W/m 0,0 km/h (0 Bft)
14.08.2014 22:36 15,1 C 13,9 C 91 % 1010,4 hPa 0,0 l/m 0 min 0 min 0,0 UV-I 0 W/m 10,7 km/h (2 Bft)
14.08.2014 22:38 15,1 C 13,9 C 91 % 1010,4 hPa 0,0 l/m 0 min 0 min 0,0 UV-I 0 W/m 14,2 km/h (3 Bft)
14.08.2014 22:40 15,0 C 13,9 C 91 % 1010,4 hPa 0,0 l/m 0 min 0 min 0,0 UV-I 0 W/m 14,2 km/h (3 Bft)
14.08.2014 22:42 15,0 C 13,9 C 91 % 1010,4 hPa 0,0 l/m 0 min 0 min 0,0 UV-I 0 W/m 17,7 km/h (3 Bft)
14.08.2014 22:44 14,9 C 13,3 C 91 % 1010,4 hPa 0,0 l/m 0 min 0 min 0,0 UV-I 0 W/m 14,2 km/h (3 Bft)
14.08.2014 22:46 14,9 C 13,3 C 91 % 1010,4 hPa 0,0 l/m 0 min 0 min 0,0 UV-I 0 W/m 14,2 km/h (3 Bft)
14.08.2014 22:48 14,8 C 13,3 C 92 % 1010,4 hPa 0,0 l/m 0 min 0 min 0,0 UV-I 0 W/m 14,2 km/h (3 Bft)
14.08.2014 22:50 14,8 C 13,3 C 92 % 1010,4 hPa 0,0 l/m 0 min 0 min 0,0 UV-I 0 W/m 14,2 km/h (3 Bft)
14.08.2014 22:52 14,7 C 13,3 C 92 % 1010,4 hPa 0,0 l/m 0 min 0 min 0,0 UV-I 0 W/m 10,7 km/h (2 Bft)
14.08.2014 22:54 14,7 C 13,3 C 92 % 1010,4 hPa 0,0 l/m 0 min 0 min 0,0 UV-I 0 W/m 17,7 km/h (3 Bft)
14.08.2014 22:56 14,7 C 13,3 C 92 % 1010,4 hPa 0,0 l/m 0 min 0 min 0,0 UV-I 0 W/m 21,3 km/h (4 Bft)
14.08.2014 22:58 14,7 C 13,3 C 92 % 1010,4 hPa 0,0 l/m 0 min 0 min 0,0 UV-I 0 W/m 10,7 km/h (2 Bft)
14.08.2014 23:00 14,7 C 13,3 C 92 % 1010,4 hPa 0,0 l/m 0 min 0 min 0,0 UV-I 0 W/m 17,7 km/h (3 Bft)
14.08.2014 23:02 14,7 C 13,3 C 92 % 1010,5 hPa 0,0 l/m 0 min 0 min 0,0 UV-I 0 W/m 10,7 km/h (2 Bft)
14.08.2014 23:04 14,7 C 13,3 C 92 % 1010,5 hPa 0,0 l/m 0 min 0 min 0,0 UV-I 0 W/m 21,3 km/h (4 Bft)
14.08.2014 23:06 14,7 C 13,3 C 92 % 1010,5 hPa 0,0 l/m 0 min 0 min 0,0 UV-I 0 W/m 14,2 km/h (3 Bft)
14.08.2014 23:08 14,7 C 13,3 C 92 % 1010,5 hPa 0,0 l/m 0 min 0 min 0,0 UV-I 0 W/m 17,7 km/h (3 Bft)
14.08.2014 23:10 14,6 C 13,3 C 92 % 1010,5 hPa 0,0 l/m 0 min 0 min 0,0 UV-I 0 W/m 17,7 km/h (3 Bft)
14.08.2014 23:12 14,6 C 13,3 C 92 % 1010,5 hPa 0,0 l/m 0 min 0 min 0,0 UV-I 0 W/m 14,2 km/h (3 Bft)
14.08.2014 23:14 14,6 C 13,3 C 92 % 1010,5 hPa 0,0 l/m 0 min 0 min 0,0 UV-I 0 W/m 14,2 km/h (3 Bft)
14.08.2014 23:16 14,6 C 13,3 C 92 % 1010,5 hPa 0,0 l/m 0 min 0 min 0,0 UV-I 0 W/m 17,7 km/h (3 Bft)
14.08.2014 23:18 14,7 C 13,3 C 92 % 1010,5 hPa 0,0 l/m 0 min 0 min 0,0 UV-I 0 W/m 10,7 km/h (2 Bft)
14.08.2014 23:20 14,7 C 13,3 C 91 % 1010,5 hPa 0,0 l/m 0 min 0 min 0,0 UV-I 0 W/m 10,7 km/h (2 Bft)
14.08.2014 23:22 14,7 C 13,3 C 91 % 1010,5 hPa 0,0 l/m 0 min 0 min 0,0 UV-I 0 W/m 14,2 km/h (3 Bft)
14.08.2014 23:24 14,7 C 13,3 C 91 % 1010,5 hPa 0,0 l/m 0 min 0 min 0,0 UV-I 0 W/m 14,2 km/h (3 Bft)
14.08.2014 23:26 14,7 C 13,3 C 91 % 1010,5 hPa 0,0 l/m 0 min 0 min 0,0 UV-I 0 W/m 0,0 km/h (0 Bft)
14.08.2014 23:28 14,7 C 13,3 C 91 % 1010,5 hPa 0,0 l/m 0 min 0 min 0,0 UV-I 0 W/m 3,5 km/h (1 Bft)
14.08.2014 23:30 14,7 C 13,3 C 91 % 1010,4 hPa 0,0 l/m 0 min 0 min 0,0 UV-I 0 W/m 24,7 km/h (4 Bft)
14.08.2014 23:32 14,7 C 13,3 C 91 % 1010,4 hPa 0,0 l/m 0 min 0 min 0,0 UV-I 0 W/m 14,2 km/h (3 Bft)
14.08.2014 23:34 14,7 C 13,3 C 91 % 1010,5 hPa 0,0 l/m 0 min 0 min 0,0 UV-I 0 W/m 10,7 km/h (2 Bft)
14.08.2014 23:36 14,7 C 13,3 C 91 % 1010,5 hPa 0,0 l/m 0 min 0 min 0,0 UV-I 0 W/m 3,5 km/h (1 Bft)
14.08.2014 23:38 14,7 C 13,3 C 91 % 1010,5 hPa 0,0 l/m 0 min 0 min 0,0 UV-I 0 W/m 10,7 km/h (2 Bft)
14.08.2014 23:40 14,7 C 13,3 C 91 % 1010,5 hPa 0,0 l/m 0 min 0 min 0,0 UV-I 0 W/m 14,2 km/h (3 Bft)
14.08.2014 23:42 14,7 C 13,3 C 91 % 1010,4 hPa 0,0 l/m 0 min 0 min 0,0 UV-I 0 W/m 10,7 km/h (2 Bft)
14.08.2014 23:44 14,7 C 13,3 C 91 % 1010,5 hPa 0,0 l/m 0 min 0 min 0,0 UV-I 0 W/m 14,2 km/h (3 Bft)
14.08.2014 23:46 14,7 C 13,3 C 91 % 1010,5 hPa 0,0 l/m 0 min 0 min 0,0 UV-I 0 W/m 10,7 km/h (2 Bft)
14.08.2014 23:48 14,7 C 13,3 C 91 % 1010,5 hPa 0,0 l/m 0 min 0 min 0,0 UV-I 0 W/m 14,2 km/h (3 Bft)
14.08.2014 23:50 14,7 C 13,3 C 91 % 1010,5 hPa 0,0 l/m 0 min 0 min 0,0 UV-I 0 W/m 7,1 km/h (2 Bft)
14.08.2014 23:52 14,7 C 13,3 C 91 % 1010,5 hPa 0,0 l/m 0 min 0 min 0,0 UV-I 0 W/m 14,2 km/h (3 Bft)
14.08.2014 23:54 14,7 C 13,3 C 91 % 1010,5 hPa 0,0 l/m 0 min 0 min 0,0 UV-I 0 W/m 10,7 km/h (2 Bft)
14.08.2014 23:56 14,7 C 13,3 C 91 % 1010,6 hPa 0,0 l/m 0 min 0 min 0,0 UV-I 0 W/m 17,7 km/h (3 Bft)
14.08.2014 23:58 14,7 C 13,3 C 91 % 1010,5 hPa 0,0 l/m 0 min 0 min 0,0 UV-I 0 W/m 10,7 km/h (2 Bft)
_ Min-Zeit 04:16 03:42 14:46 00:00 - - - - - 00:16
Minimum _ 13,5 C 12,2 C 71 % 1007,5 hPa - - - - - 0,0 km/h (0 Bft)
_ Max-Zeit 14:12 13:12 04:50 21:36 15:14 09:26 13:20 14:20 12:42 14:22
Maximum _ 21,0 C 20,6 C 92 % 1010,6 hPa 0,2 l/m 2 min 2 min 4,2 UV-I 931 W/m 67,1 km/h
W (8 Bft)
Durchschnitt _ 15,7 C 14,7 C 88 % 1009,4 hPa #0,4 l/m #2:56 h #1:04 h 1,8 UV-I 197 W/m 24,3 km/h (4 Bft)
© 2014 W. Hausmann